VIR92MC KMCO-EGLL

Flight info

Callsign VIR92MC
Flight time N/A
Altitude 34000
Route JEEMY4 PAINN SHRKS BERTT GURGE RAYVO Q87 NOWAE FAK BOOYA Q34 RBV Q22 LLUND BIZEX Q133 CAM BEEHS JIGZY TAFFY N693A NEEKO 5350N 5440N 5430N 5420N DOGAL BEXET ENJEX AVZAC INFEC JETZI AMFUL ORZEB P2 SIRIC
Aircraft A339/H-SADE1E2E3GHIJ1J3J5M1P2RWXY/LB2D1

Departure

Time 2026-04-25 12:54
Airport Orlando International Airport (KMCO)

Arrival

Time N/A
Airport London Heathrow Airport (EGLL)
Time Latitude Longitude Altitude Speed Heading
2026-04-25 11:25 28.42510 -81.30067 107 ft 0 kts 28°
2026-04-25 12:20 28.42494 -81.30076 106 ft 4 kts 34°
2026-04-25 12:21 28.42473 -81.30094 105 ft 4 kts 53°
2026-04-25 12:21 28.42459 -81.30116 105 ft 4 kts 83°
2026-04-25 12:21 28.42458 -81.30140 105 ft 2 kts 119°
2026-04-25 12:21 28.42458 -81.30141 105 ft 0 kts 120°
2026-04-25 12:31 28.42461 -81.30147 108 ft 1 kts 120°
2026-04-25 12:31 28.42465 -81.30154 108 ft 1 kts 120°
2026-04-25 12:32 28.42466 -81.30156 108 ft 0 kts 120°
2026-04-25 12:37 28.42465 -81.30155 108 ft 1 kts 120°
2026-04-25 12:37 28.42448 -81.30137 109 ft 5 kts 141°
2026-04-25 12:37 28.42434 -81.30136 109 ft 0 kts 174°
2026-04-25 12:38 28.42425 -81.30135 108 ft 7 kts 174°
2026-04-25 12:39 28.42362 -81.30130 108 ft 9 kts 178°
2026-04-25 12:39 28.42296 -81.30142 108 ft 10 kts 208°
2026-04-25 12:39 28.42277 -81.30221 108 ft 12 kts 269°
2026-04-25 12:39 28.42276 -81.30319 107 ft 13 kts 269°
2026-04-25 12:40 28.42271 -81.30429 107 ft 15 kts 265°
2026-04-25 12:40 28.42263 -81.30534 110 ft 13 kts 265°
2026-04-25 12:40 28.42256 -81.30655 109 ft 17 kts 265°
2026-04-25 12:40 28.42245 -81.30803 109 ft 21 kts 265°
2026-04-25 12:41 28.42236 -81.30940 108 ft 15 kts 265°
2026-04-25 12:41 28.42238 -81.31059 106 ft 16 kts 276°
2026-04-25 12:41 28.42250 -81.31141 106 ft 6 kts 280°
2026-04-25 12:41 28.42251 -81.31145 106 ft 0 kts 280°
2026-04-25 12:43 28.42252 -81.31152 106 ft 4 kts 280°
2026-04-25 12:43 28.42262 -81.31218 108 ft 13 kts 280°
2026-04-25 12:43 28.42267 -81.31526 108 ft 19 kts 269°
2026-04-25 12:44 28.42266 -81.31671 109 ft 17 kts 269°
2026-04-25 12:44 28.42265 -81.31797 112 ft 14 kts 269°
2026-04-25 12:44 28.42282 -81.31985 113 ft 11 kts 317°
2026-04-25 12:45 28.42372 -81.31989 112 ft 16 kts
2026-04-25 12:45 28.42496 -81.31989 112 ft 18 kts 360°
2026-04-25 12:45 28.42763 -81.31991 109 ft 21 kts 359°
2026-04-25 12:46 28.42913 -81.31992 107 ft 22 kts 359°
2026-04-25 12:46 28.43064 -81.31995 106 ft 21 kts 359°
2026-04-25 12:46 28.43209 -81.31997 107 ft 21 kts
2026-04-25 12:46 28.43351 -81.31996 107 ft 20 kts 360°
2026-04-25 12:47 28.43480 -81.31998 108 ft 17 kts 359°
2026-04-25 12:47 28.43592 -81.32000 110 ft 15 kts 359°
2026-04-25 12:47 28.43699 -81.32000 112 ft 17 kts 359°
2026-04-25 12:47 28.43826 -81.32002 113 ft 20 kts 359°
2026-04-25 12:48 28.43970 -81.32003 114 ft 22 kts 359°
2026-04-25 12:48 28.44134 -81.32005 115 ft 25 kts 359°
2026-04-25 12:48 28.44311 -81.32007 111 ft 25 kts 360°
2026-04-25 12:48 28.44463 -81.32008 110 ft 17 kts 359°
2026-04-25 12:49 28.44580 -81.32009 108 ft 15 kts 359°
2026-04-25 12:49 28.44636 -81.32011 108 ft 0 kts 359°
2026-04-25 12:50 28.44639 -81.32011 108 ft 3 kts 359°
2026-04-25 12:51 28.44691 -81.32020 107 ft 10 kts 335°
2026-04-25 12:51 28.44716 -81.32087 108 ft 9 kts 277°
2026-04-25 12:51 28.44714 -81.32158 108 ft 9 kts 268°
2026-04-25 12:51 28.44683 -81.32217 109 ft 8 kts 213°
2026-04-25 12:52 28.44634 -81.32225 109 ft 0 kts 181°
2026-04-25 12:53 28.44537 -81.32226 109 ft 44 kts 180°
2026-04-25 12:53 28.43982 -81.32220 111 ft 114 kts 179°
2026-04-25 12:53 28.42986 -81.32212 109 ft 169 kts 179°
2026-04-25 12:54 28.41703 -81.32200 400 ft 189 kts 179°
2026-04-25 12:54 28.40389 -81.32211 1104 ft 189 kts 184°
2026-04-25 12:54 28.39058 -81.32537 1476 ft 205 kts 202°
2026-04-25 12:54 28.37734 -81.33293 1735 ft 221 kts 208°
2026-04-25 12:55 28.36325 -81.34167 1935 ft 240 kts 209°
2026-04-25 12:55 28.35375 -81.34875 2044 ft 253 kts 217°
2026-04-25 12:55 28.33730 -81.36807 2655 ft 260 kts 231°
2026-04-25 12:55 28.32597 -81.38420 3151 ft 263 kts 230°
2026-04-25 12:56 28.31425 -81.40034 3645 ft 266 kts 230°
2026-04-25 12:56 28.30230 -81.41657 4174 ft 268 kts 230°
2026-04-25 12:56 28.29025 -81.43289 4707 ft 271 kts 230°
2026-04-25 12:56 28.27810 -81.44932 5212 ft 273 kts 230°
2026-04-25 12:57 28.26645 -81.46644 5673 ft 276 kts 242°
2026-04-25 12:57 28.26092 -81.48713 6186 ft 277 kts 267°
2026-04-25 12:57 28.26375 -81.50867 6665 ft 279 kts 291°
2026-04-25 12:57 28.27409 -81.52705 6773 ft 277 kts 317°
2026-04-25 12:58 28.28924 -81.54045 6865 ft 276 kts 327°
2026-04-25 12:58 28.30712 -81.54808 6965 ft 276 kts 352°
2026-04-25 12:58 28.32629 -81.55061 7019 ft 278 kts 353°
2026-04-25 12:58 28.34565 -81.55306 7263 ft 280 kts 353°
2026-04-25 12:59 28.36492 -81.55543 7891 ft 278 kts 353°
2026-04-25 12:59 28.38430 -81.55770 8394 ft 281 kts 353°
2026-04-25 12:59 28.40381 -81.55994 8935 ft 282 kts 353°
2026-04-25 12:59 28.42339 -81.56209 9465 ft 284 kts 353°
2026-04-25 13:00 28.43647 -81.56346 9827 ft 285 kts 353°
2026-04-25 13:00 28.44954 -81.56477 10157 ft 286 kts 354°
2026-04-25 13:00 28.48360 -81.55853 10440 ft 314 kts 15°
2026-04-25 13:00 28.50489 -81.55065 10574 ft 329 kts 16°
2026-04-25 13:01 28.52709 -81.54256 10835 ft 338 kts 15°
2026-04-25 13:01 28.54969 -81.53494 11315 ft 339 kts 14°
2026-04-25 13:01 28.57252 -81.52770 11803 ft 341 kts 13°
2026-04-25 13:01 28.59551 -81.52068 12282 ft 343 kts 13°
2026-04-25 13:02 28.61864 -81.51371 12761 ft 345 kts 13°
2026-04-25 13:02 28.64188 -81.50673 13244 ft 347 kts 13°
2026-04-25 13:02 28.66530 -81.49969 13719 ft 349 kts 13°
2026-04-25 13:02 28.68883 -81.49260 14132 ft 351 kts 12°
2026-04-25 13:03 28.71257 -81.48545 14515 ft 354 kts 12°
2026-04-25 13:03 28.73649 -81.47822 14905 ft 357 kts 12°
2026-04-25 13:03 28.76058 -81.47095 15287 ft 359 kts 12°
2026-04-25 13:03 28.78457 -81.46369 15678 ft 362 kts 12°
2026-04-25 13:04 28.80901 -81.45630 16083 ft 365 kts 12°
2026-04-25 13:04 28.83365 -81.44884 16460 ft 367 kts 12°
2026-04-25 13:04 28.85845 -81.44132 16849 ft 370 kts 12°
2026-04-25 13:04 28.88341 -81.43376 17237 ft 372 kts 12°
2026-04-25 13:05 28.90857 -81.42613 17615 ft 375 kts 12°
2026-04-25 13:05 28.93400 -81.41915 17980 ft 376 kts
2026-04-25 13:05 28.96005 -81.41641 18357 ft 377 kts 359°
2026-04-25 13:05 28.98628 -81.41663 18727 ft 377 kts 355°
2026-04-25 13:06 29.01248 -81.41886 19105 ft 378 kts 352°
2026-04-25 13:06 29.03865 -81.42231 19464 ft 379 kts 352°
2026-04-25 13:06 29.06498 -81.42542 19831 ft 381 kts 352°
2026-04-25 13:06 29.09145 -81.42834 20208 ft 383 kts 352°
2026-04-25 13:07 29.11809 -81.43114 20573 ft 385 kts 353°
2026-04-25 13:07 29.13581 -81.43282 20807 ft 386 kts 353°
2026-04-25 13:07 29.17178 -81.43609 21300 ft 388 kts 353°
2026-04-25 13:07 29.19846 -81.43853 21659 ft 390 kts 353°
2026-04-25 13:08 29.22560 -81.44106 22038 ft 392 kts 353°
2026-04-25 13:08 29.25286 -81.44363 22393 ft 394 kts 353°
2026-04-25 13:08 29.28025 -81.44623 22753 ft 396 kts 353°
2026-04-25 13:08 29.30781 -81.44887 23088 ft 399 kts 353°
2026-04-25 13:09 29.33559 -81.45152 23467 ft 401 kts 353°
2026-04-25 13:09 29.36347 -81.45418 23793 ft 403 kts 353°
2026-04-25 13:09 29.39147 -81.45684 24111 ft 404 kts 353°
2026-04-25 13:09 29.41958 -81.45953 24424 ft 406 kts 353°
2026-04-25 13:10 29.44786 -81.46224 24743 ft 408 kts 353°
2026-04-25 13:10 29.47585 -81.46492 25057 ft 409 kts 354°
2026-04-25 13:10 29.50428 -81.46765 25373 ft 411 kts 354°
2026-04-25 13:10 29.53288 -81.47038 25674 ft 412 kts 354°
2026-04-25 13:11 29.56152 -81.47313 25978 ft 414 kts 354°
2026-04-25 13:11 29.59048 -81.47591 26111 ft 421 kts 354°
2026-04-25 13:11 29.62000 -81.47863 26184 ft 428 kts 354°
2026-04-25 13:11 29.64995 -81.48132 26264 ft 436 kts 354°
2026-04-25 13:12 29.68047 -81.48405 26336 ft 443 kts 354°
2026-04-25 13:12 29.71146 -81.48684 26413 ft 450 kts 354°
2026-04-25 13:12 29.74287 -81.48968 26489 ft 456 kts 354°
2026-04-25 13:12 29.75312 -81.49061 26538 ft 457 kts 354°
2026-04-25 13:13 29.80635 -81.49544 27118 ft 457 kts 355°
2026-04-25 13:13 29.83800 -81.49832 27505 ft 455 kts 355°
2026-04-25 13:13 29.86920 -81.50133 27812 ft 456 kts 353°
2026-04-25 13:13 29.90066 -81.50750 27874 ft 462 kts 347°
2026-04-25 13:14 29.93171 -81.51773 27935 ft 467 kts 342°
2026-04-25 13:14 29.96285 -81.52912 28012 ft 471 kts 342°
2026-04-25 13:14 29.99421 -81.54035 28210 ft 471 kts 343°
2026-04-25 13:14 30.02549 -81.55149 28443 ft 470 kts 343°
2026-04-25 13:15 30.08841 -81.57393 28572 ft 475 kts 343°
2026-04-25 13:15 30.13025 -81.58890 28681 ft 476 kts 343°
2026-04-25 13:16 30.20444 -81.61551 28752 ft 479 kts 343°
2026-04-25 13:16 30.26815 -81.63839 28831 ft 480 kts 343°
2026-04-25 13:17 30.29996 -81.64983 29104 ft 476 kts 343°
2026-04-25 13:17 30.33149 -81.66118 29314 ft 474 kts 343°
2026-04-25 13:17 30.39441 -81.68384 29546 ft 473 kts 343°
2026-04-25 13:18 30.42584 -81.69516 29699 ft 473 kts 343°
2026-04-25 13:18 30.45731 -81.70651 29857 ft 473 kts 343°
2026-04-25 13:18 30.48869 -81.71784 30018 ft 472 kts 343°
2026-04-25 13:18 30.52002 -81.72915 30159 ft 472 kts 343°
2026-04-25 13:19 30.55135 -81.74048 30304 ft 471 kts 343°
2026-04-25 13:19 30.58242 -81.75111 30430 ft 471 kts 347°
2026-04-25 13:19 30.61504 -81.75813 30557 ft 470 kts 353°
2026-04-25 13:19 30.63658 -81.76037 30659 ft 470 kts 357°
2026-04-25 13:20 30.67985 -81.75947 30854 ft 470 kts
2026-04-25 13:20 30.71240 -81.75523 30999 ft 469 kts
2026-04-25 13:20 30.74486 -81.75114 31154 ft 469 kts
2026-04-25 13:20 30.77740 -81.74714 31316 ft 469 kts
2026-04-25 13:21 30.80979 -81.74316 31472 ft 469 kts
2026-04-25 13:21 30.84220 -81.73915 31630 ft 468 kts
2026-04-25 13:21 30.87460 -81.73512 31783 ft 468 kts
2026-04-25 13:21 30.90698 -81.73107 31935 ft 468 kts
2026-04-25 13:22 30.93898 -81.72706 32093 ft 467 kts
2026-04-25 13:22 30.97138 -81.72300 32240 ft 467 kts
2026-04-25 13:22 31.00369 -81.71894 32418 ft 467 kts
2026-04-25 13:23 31.06826 -81.71082 32734 ft 466 kts
2026-04-25 13:23 31.10048 -81.70677 32892 ft 465 kts
2026-04-25 13:23 31.13268 -81.70272 32960 ft 465 kts
2026-04-25 13:24 31.19591 -81.68806 32958 ft 462 kts 16°
2026-04-25 13:24 31.25720 -81.66537 32959 ft 462 kts 16°
2026-04-25 13:25 31.31878 -81.64301 32964 ft 461 kts 16°
2026-04-25 13:25 31.37947 -81.62088 32964 ft 461 kts 16°
2026-04-25 13:26 31.44063 -81.59849 32966 ft 461 kts 16°
2026-04-25 13:26 31.50193 -81.57601 32964 ft 461 kts 16°
2026-04-25 13:27 31.56319 -81.55351 32956 ft 462 kts 16°
2026-04-25 13:27 31.62446 -81.53098 32955 ft 462 kts 16°
2026-04-25 13:28 31.68579 -81.50839 32946 ft 462 kts 16°
2026-04-25 13:28 31.74721 -81.48574 32946 ft 462 kts 17°
2026-04-25 13:29 31.80859 -81.46308 32944 ft 463 kts 17°
2026-04-25 13:29 31.86970 -81.44049 32943 ft 463 kts 17°
2026-04-25 13:30 31.96193 -81.40631 32944 ft 463 kts 17°
2026-04-25 13:31 32.05422 -81.37205 32956 ft 463 kts 17°
2026-04-25 13:31 32.11585 -81.34914 32951 ft 464 kts 17°
2026-04-25 13:32 32.17746 -81.32619 32951 ft 464 kts 17°
2026-04-25 13:32 32.23898 -81.30325 32949 ft 464 kts 17°
2026-04-25 13:33 32.30053 -81.28026 32955 ft 464 kts 17°
2026-04-25 13:33 32.36156 -81.25743 32936 ft 463 kts 17°
2026-04-25 13:34 32.42303 -81.23441 32933 ft 463 kts 17°
2026-04-25 13:34 32.48235 -81.20484 32936 ft 464 kts 28°
2026-04-25 13:35 32.53570 -81.16147 32931 ft 466 kts 39°
2026-04-25 13:35 32.58582 -81.11252 32931 ft 467 kts 38°
2026-04-25 13:36 32.63645 -81.06352 32927 ft 469 kts 38°
2026-04-25 13:36 32.68691 -81.01448 32935 ft 469 kts 38°
2026-04-25 13:37 32.73744 -80.96522 32931 ft 469 kts 38°
2026-04-25 13:37 32.78783 -80.91604 32937 ft 469 kts 38°
2026-04-25 13:38 32.83803 -80.86696 32939 ft 466 kts 38°
2026-04-25 13:38 32.88832 -80.81771 32946 ft 469 kts 38°
2026-04-25 13:39 32.93837 -80.76861 32953 ft 468 kts 38°
2026-04-25 13:39 32.98863 -80.71924 32953 ft 468 kts 38°
2026-04-25 13:40 33.03891 -80.66979 32948 ft 468 kts 38°
2026-04-25 13:40 33.08916 -80.62028 32929 ft 468 kts 38°
2026-04-25 13:41 33.13939 -80.57071 32928 ft 468 kts 38°
2026-04-25 13:41 33.18958 -80.52111 32927 ft 468 kts 39°
2026-04-25 13:42 33.23935 -80.47187 32925 ft 467 kts 39°
2026-04-25 13:42 33.28941 -80.42226 32927 ft 468 kts 39°
2026-04-25 13:42 33.31451 -80.39735 33050 ft 469 kts 39°
2026-04-25 13:43 33.33964 -80.37241 33172 ft 470 kts 39°
2026-04-25 13:43 33.39017 -80.32217 33384 ft 472 kts 39°
2026-04-25 13:43 33.41545 -80.29701 33509 ft 472 kts 39°
2026-04-25 13:44 33.44075 -80.27181 33646 ft 473 kts 39°
2026-04-25 13:44 33.46603 -80.24659 33777 ft 472 kts 39°
2026-04-25 13:44 33.49097 -80.22170 33916 ft 472 kts 39°
2026-04-25 13:44 33.51654 -80.19617 34035 ft 472 kts 39°
2026-04-25 13:45 33.54177 -80.17096 34152 ft 472 kts 39°
2026-04-25 13:45 33.56700 -80.14573 34286 ft 471 kts 39°
2026-04-25 13:45 33.59183 -80.12087 34412 ft 471 kts 39°
2026-04-25 13:45 33.61702 -80.09563 34515 ft 471 kts 39°
2026-04-25 13:46 33.64304 -80.07189 34615 ft 470 kts 33°
2026-04-25 13:46 33.70013 -80.03390 34819 ft 469 kts 26°
2026-04-25 13:47 33.75846 -79.99854 34913 ft 469 kts 26°
2026-04-25 13:47 33.81663 -79.96301 34917 ft 468 kts 26°
2026-04-25 13:48 33.87496 -79.92742 34915 ft 470 kts 26°
2026-04-25 13:48 33.93321 -79.89182 34915 ft 469 kts 26°
2026-04-25 13:49 33.99147 -79.85619 34920 ft 470 kts 26°
2026-04-25 13:49 34.04975 -79.82049 34922 ft 470 kts 26°
2026-04-25 13:50 34.10774 -79.78487 34922 ft 470 kts 26°
2026-04-25 13:50 34.16613 -79.74899 34926 ft 471 kts 26°
2026-04-25 13:51 34.22455 -79.71301 34923 ft 471 kts 26°
2026-04-25 13:51 34.28299 -79.67699 34921 ft 471 kts 26°
2026-04-25 13:52 34.34143 -79.64091 34913 ft 472 kts 26°
2026-04-25 13:52 34.39995 -79.60474 34915 ft 472 kts 26°
2026-04-25 13:53 34.45850 -79.56848 34907 ft 472 kts 26°
2026-04-25 13:53 34.51660 -79.53242 34908 ft 472 kts 26°
2026-04-25 13:54 34.57501 -79.49575 34910 ft 473 kts 27°
2026-04-25 13:54 34.63253 -79.45674 34916 ft 473 kts 28°
2026-04-25 13:55 34.69007 -79.41756 34933 ft 474 kts 28°
2026-04-25 13:55 34.74767 -79.37858 34922 ft 473 kts 27°
2026-04-25 13:56 34.80523 -79.33960 34918 ft 474 kts 27°
2026-04-25 13:56 34.86280 -79.30057 34937 ft 474 kts 27°
2026-04-25 13:57 34.92041 -79.26145 34924 ft 474 kts 27°
2026-04-25 13:57 34.97806 -79.22223 34909 ft 474 kts 27°
2026-04-25 13:58 35.03565 -79.18298 34886 ft 475 kts 28°
2026-04-25 13:58 35.09336 -79.14361 34886 ft 475 kts 28°
2026-04-25 13:59 35.15106 -79.10418 34908 ft 475 kts 28°
2026-04-25 13:59 35.20847 -79.06486 34921 ft 476 kts 28°
2026-04-25 14:00 35.24707 -79.03838 34913 ft 475 kts 27°
2026-04-25 14:00 35.32397 -78.98557 34900 ft 476 kts 27°
2026-04-25 14:01 35.37199 -78.95254 34900 ft 477 kts 27°
2026-04-25 14:01 35.42990 -78.91264 34904 ft 477 kts 27°
2026-04-25 14:02 35.48777 -78.87270 34907 ft 477 kts 27°
2026-04-25 14:02 35.54562 -78.83269 34906 ft 477 kts 27°
2026-04-25 14:03 35.60351 -78.79260 34903 ft 477 kts 27°
2026-04-25 14:03 35.66131 -78.75250 34898 ft 477 kts 27°
2026-04-25 14:04 35.71914 -78.71231 34903 ft 477 kts 27°
2026-04-25 14:04 35.77711 -78.67192 34884 ft 478 kts 27°
2026-04-25 14:05 35.83462 -78.63181 34892 ft 478 kts 27°
2026-04-25 14:05 35.89255 -78.59138 34902 ft 478 kts 27°
2026-04-25 14:06 35.95047 -78.55085 34907 ft 478 kts 27°
2026-04-25 14:06 36.00845 -78.51019 34903 ft 479 kts 27°
2026-04-25 14:07 36.06647 -78.46946 34910 ft 480 kts 27°
2026-04-25 14:07 36.12456 -78.42861 34911 ft 480 kts 27°
2026-04-25 14:08 36.18272 -78.38766 34920 ft 480 kts 27°
2026-04-25 14:08 36.24087 -78.34658 34890 ft 481 kts 26°
2026-04-25 14:09 36.29913 -78.30541 34888 ft 482 kts 26°
2026-04-25 14:09 36.35757 -78.26446 34884 ft 480 kts 24°
2026-04-25 14:10 36.41898 -78.23472 34891 ft 475 kts 12°
2026-04-25 14:10 36.48251 -78.21208 34884 ft 475 kts 12°
2026-04-25 14:11 36.54598 -78.18899 34877 ft 475 kts 13°
2026-04-25 14:11 36.60954 -78.16589 34940 ft 475 kts 12°
2026-04-25 14:12 36.67309 -78.14278 34945 ft 476 kts 12°
2026-04-25 14:12 36.73660 -78.11968 34946 ft 476 kts 12°
2026-04-25 14:13 36.80023 -78.09651 34938 ft 476 kts 12°
2026-04-25 14:13 36.86390 -78.07327 34923 ft 476 kts 12°
2026-04-25 14:14 36.92713 -78.05014 34878 ft 477 kts 12°
2026-04-25 14:14 36.99083 -78.02681 34887 ft 477 kts 12°
2026-04-25 14:15 37.05459 -78.00342 34889 ft 477 kts 12°
2026-04-25 14:15 37.11836 -77.97997 34894 ft 478 kts 12°
2026-04-25 14:16 37.18232 -77.95640 34885 ft 478 kts 11°
2026-04-25 14:16 37.24617 -77.93286 34893 ft 478 kts 11°
2026-04-25 14:17 37.30950 -77.90946 34887 ft 477 kts 11°
2026-04-25 14:17 37.37326 -77.88585 34882 ft 477 kts 11°
2026-04-25 14:18 37.43681 -77.86228 34882 ft 477 kts 11°
2026-04-25 14:18 37.50074 -77.83853 34889 ft 477 kts 11°
2026-04-25 14:19 37.56342 -77.80994 34918 ft 482 kts 18°
2026-04-25 14:19 37.62543 -77.77723 34912 ft 483 kts 17°
2026-04-25 14:20 37.68722 -77.74488 34926 ft 484 kts 17°
2026-04-25 14:20 37.74939 -77.71218 34930 ft 484 kts 17°
2026-04-25 14:21 37.81159 -77.67937 34929 ft 484 kts 17°
2026-04-25 14:21 37.87376 -77.64651 34931 ft 484 kts 17°
2026-04-25 14:22 37.93588 -77.61362 34929 ft 484 kts 17°
2026-04-25 14:22 37.99805 -77.58064 34948 ft 483 kts 17°
2026-04-25 14:23 38.05999 -77.54770 34930 ft 482 kts 17°
2026-04-25 14:23 38.12196 -77.51472 34933 ft 482 kts 17°
2026-04-25 14:24 38.18389 -77.48170 34935 ft 482 kts 17°
2026-04-25 14:24 38.24540 -77.44882 34929 ft 483 kts 17°
2026-04-25 14:25 38.28686 -77.42663 34946 ft 483 kts 17°
2026-04-25 14:25 38.36925 -77.38142 34954 ft 487 kts 22°
2026-04-25 14:26 38.42564 -77.33147 34979 ft 500 kts 37°
2026-04-25 14:26 38.47319 -77.26553 34969 ft 506 kts 43°
2026-04-25 14:27 38.51982 -77.19835 34964 ft 505 kts 43°
2026-04-25 14:27 38.56625 -77.13140 34953 ft 503 kts 43°
2026-04-25 14:28 38.61229 -77.06477 34952 ft 503 kts 43°
2026-04-25 14:28 38.65861 -76.99753 34948 ft 504 kts 43°
2026-04-25 14:29 38.70490 -76.93020 34958 ft 504 kts 43°
2026-04-25 14:29 38.75117 -76.86277 34967 ft 503 kts 43°
2026-04-25 14:30 38.79725 -76.79544 34980 ft 502 kts 43°
2026-04-25 14:30 38.86641 -76.69414 34974 ft 502 kts 43°
2026-04-25 14:31 38.91219 -76.62692 34991 ft 501 kts 43°
2026-04-25 14:31 38.95800 -76.55950 34989 ft 501 kts 43°
2026-04-25 14:32 39.00350 -76.49239 34980 ft 501 kts 43°
2026-04-25 14:32 39.04924 -76.42476 34987 ft 501 kts 43°
2026-04-25 14:33 39.09493 -76.35710 34998 ft 500 kts 43°
2026-04-25 14:33 39.14051 -76.28944 34999 ft 500 kts 43°
2026-04-25 14:34 39.18604 -76.22171 35005 ft 500 kts 43°
2026-04-25 14:34 39.23155 -76.15385 35019 ft 499 kts 43°
2026-04-25 14:35 39.27692 -76.08605 35021 ft 499 kts 43°
2026-04-25 14:35 39.32226 -76.01817 35011 ft 498 kts 43°
2026-04-25 14:36 39.36717 -75.95080 34993 ft 498 kts 43°
2026-04-25 14:36 39.41240 -75.88281 35007 ft 498 kts 43°
2026-04-25 14:37 39.45759 -75.81472 35022 ft 498 kts 43°
2026-04-25 14:37 39.50276 -75.74651 35044 ft 499 kts 43°
2026-04-25 14:38 39.54795 -75.67812 35051 ft 499 kts 43°
2026-04-25 14:38 39.59299 -75.60980 35058 ft 499 kts 43°
2026-04-25 14:39 39.63805 -75.54132 35045 ft 498 kts 43°
2026-04-25 14:39 39.68088 -75.47018 35038 ft 502 kts 48°
2026-04-25 14:40 39.72168 -75.39754 35047 ft 501 kts 47°
2026-04-25 14:40 39.76507 -75.32699 35060 ft 489 kts 36°
2026-04-25 14:41 39.79119 -75.30038 35054 ft 477 kts 24°
2026-04-25 14:41 39.82036 -75.28113 35048 ft 465 kts 13°
2026-04-25 14:41 39.88114 -75.25376 35050 ft 472 kts 20°
2026-04-25 14:42 39.90899 -75.23029 35050 ft 484 kts 32°
2026-04-25 14:42 39.91776 -75.22061 35054 ft 488 kts 36°
2026-04-25 14:42 39.97835 -75.13081 35075 ft 497 kts 43°
2026-04-25 14:43 40.02282 -75.06182 35069 ft 496 kts 43°
2026-04-25 14:43 40.06698 -74.99273 35068 ft 497 kts 45°
2026-04-25 14:44 40.11289 -74.92675 35064 ft 486 kts 36°
2026-04-25 14:44 40.15430 -74.87710 35071 ft 485 kts 34°
2026-04-25 14:45 40.20496 -74.81917 35074 ft 483 kts 33°
2026-04-25 14:45 40.25594 -74.76188 35071 ft 483 kts 33°
2026-04-25 14:46 40.30694 -74.70452 35068 ft 482 kts 33°
2026-04-25 14:46 40.35750 -74.64750 35073 ft 483 kts 33°
2026-04-25 14:47 40.40019 -74.59924 35077 ft 483 kts 33°
2026-04-25 14:47 40.45923 -74.53237 35082 ft 483 kts 33°
2026-04-25 14:48 40.51010 -74.47462 35101 ft 483 kts 33°
2026-04-25 14:48 40.56093 -74.41679 35115 ft 483 kts 33°
2026-04-25 14:49 40.61174 -74.35887 35119 ft 483 kts 33°
2026-04-25 14:49 40.66248 -74.30090 35129 ft 482 kts 33°
2026-04-25 14:50 40.71314 -74.24289 35130 ft 482 kts 33°
2026-04-25 14:50 40.76369 -74.18491 35130 ft 481 kts 33°
2026-04-25 14:51 40.81383 -74.12727 35132 ft 480 kts 33°
2026-04-25 14:51 40.86428 -74.06914 35130 ft 480 kts 33°
2026-04-25 14:52 40.91464 -74.01101 35118 ft 481 kts 33°
2026-04-25 14:52 40.95643 -73.96266 35109 ft 479 kts 33°
2026-04-25 14:53 41.01490 -73.89488 35111 ft 478 kts 33°
2026-04-25 14:53 41.06494 -73.83677 35115 ft 478 kts 33°
2026-04-25 14:54 41.11491 -73.77860 35109 ft 478 kts 33°
2026-04-25 14:54 41.16493 -73.72024 35109 ft 479 kts 33°
2026-04-25 14:55 41.21493 -73.66180 35109 ft 478 kts 33°
2026-04-25 14:55 41.26591 -73.60713 35141 ft 465 kts 22°
2026-04-25 14:56 41.29453 -73.58834 35136 ft 454 kts 13°
2026-04-25 14:56 41.32444 -73.57643 35134 ft 443 kts
2026-04-25 14:56 41.38486 -73.56718 35132 ft 436 kts 358°
2026-04-25 14:57 41.44542 -73.55901 35134 ft 437 kts 359°
2026-04-25 14:57 41.50613 -73.55071 35096 ft 437 kts 359°
2026-04-25 14:58 41.56632 -73.54251 35098 ft 436 kts 359°
2026-04-25 14:58 41.62671 -73.53430 35096 ft 436 kts 359°
2026-04-25 14:59 41.68667 -73.52615 35102 ft 436 kts 359°
2026-04-25 14:59 41.74699 -73.51790 35103 ft 436 kts 359°
2026-04-25 15:00 41.80750 -73.50962 35118 ft 436 kts 359°
2026-04-25 15:00 41.86794 -73.50134 35106 ft 437 kts 359°
2026-04-25 15:01 41.92807 -73.49310 35099 ft 437 kts 359°
2026-04-25 15:01 41.98853 -73.48478 35090 ft 436 kts 359°
2026-04-25 15:02 42.04901 -73.47644 35090 ft 436 kts 359°
2026-04-25 15:02 42.10938 -73.46810 35075 ft 436 kts 359°
2026-04-25 15:03 42.16982 -73.45974 35072 ft 435 kts 359°
2026-04-25 15:03 42.23014 -73.45140 35080 ft 435 kts 359°
2026-04-25 15:04 42.29049 -73.44302 35078 ft 436 kts 359°
2026-04-25 15:04 42.35073 -73.43463 35072 ft 436 kts 359°
2026-04-25 15:05 42.41069 -73.42629 35075 ft 436 kts 359°
2026-04-25 15:06 42.50146 -73.41358 35082 ft 437 kts 358°
2026-04-25 15:06 42.56202 -73.40510 35082 ft 437 kts 358°
2026-04-25 15:07 42.62256 -73.39659 35115 ft 437 kts 358°
2026-04-25 15:07 42.68272 -73.38812 35101 ft 437 kts 358°
2026-04-25 15:08 42.74331 -73.37958 35106 ft 437 kts 358°
2026-04-25 15:08 42.80387 -73.37104 35102 ft 437 kts 358°
2026-04-25 15:09 42.86446 -73.36247 35096 ft 438 kts 358°
2026-04-25 15:09 42.95559 -73.34955 35099 ft 438 kts 358°
2026-04-25 15:10 43.01588 -73.34118 35107 ft 438 kts 357°
2026-04-25 15:11 43.10685 -73.33214 35094 ft 437 kts 356°
2026-04-25 15:11 43.16750 -73.32603 35099 ft 437 kts 356°
2026-04-25 15:12 43.25863 -73.31654 35106 ft 438 kts 356°
2026-04-25 15:12 43.29938 -73.31227 35107 ft 438 kts 356°
2026-04-25 15:13 43.41078 -73.30061 35125 ft 438 kts 356°
2026-04-25 15:14 43.47080 -73.29426 35104 ft 432 kts 356°
2026-04-25 15:14 43.53087 -73.28796 35103 ft 434 kts 356°
2026-04-25 15:15 43.58127 -73.28266 35101 ft 434 kts 356°
2026-04-25 15:15 43.65116 -73.27527 35106 ft 433 kts 356°
2026-04-25 15:16 43.71144 -73.26888 35115 ft 434 kts 356°
2026-04-25 15:16 43.80187 -73.25928 35106 ft 434 kts 356°
2026-04-25 15:17 43.89195 -73.24969 35093 ft 437 kts 356°
2026-04-25 15:18 43.95289 -73.24297 35119 ft 440 kts 359°
2026-04-25 15:18 44.01242 -73.21739 35107 ft 462 kts 19°
2026-04-25 15:18 44.03983 -73.19294 35106 ft 475 kts 30°
2026-04-25 15:19 44.06418 -73.16106 35103 ft 488 kts 41°
2026-04-25 15:19 44.07149 -73.14873 35103 ft 493 kts 45°
2026-04-25 15:19 44.12349 -73.04340 35123 ft 490 kts 47°
2026-04-25 15:20 44.16190 -72.96578 35126 ft 488 kts 47°
2026-04-25 15:20 44.20056 -72.88769 35141 ft 489 kts 47°
2026-04-25 15:21 44.23888 -72.80990 35141 ft 489 kts 47°
2026-04-25 15:21 44.27736 -72.73155 35161 ft 488 kts 47°
2026-04-25 15:22 44.31548 -72.65365 35121 ft 483 kts 47°
2026-04-25 15:22 44.35354 -72.57583 35134 ft 487 kts 47°
2026-04-25 15:23 44.39164 -72.49761 35139 ft 483 kts 47°
2026-04-25 15:23 44.42931 -72.42000 35132 ft 481 kts 47°
2026-04-25 15:24 44.46683 -72.34260 35140 ft 481 kts 47°
2026-04-25 15:24 44.49164 -72.29134 35126 ft 481 kts 47°
2026-04-25 15:25 44.54160 -72.18773 35131 ft 481 kts 47°
2026-04-25 15:25 44.57899 -72.10994 35142 ft 480 kts 47°
2026-04-25 15:26 44.61626 -72.03218 35132 ft 479 kts 47°
2026-04-25 15:26 44.65338 -71.95457 35139 ft 479 kts 47°
2026-04-25 15:27 44.69039 -71.87693 35127 ft 477 kts 47°
2026-04-25 15:28 44.74567 -71.76060 35139 ft 477 kts 46°
2026-04-25 15:28 44.78249 -71.68289 35134 ft 476 kts 47°
2026-04-25 15:29 44.81916 -71.60527 35131 ft 476 kts 47°
2026-04-25 15:29 44.84966 -71.54055 35128 ft 476 kts 47°
2026-04-25 15:30 44.89217 -71.45006 35144 ft 476 kts 46°
2026-04-25 15:30 44.92279 -71.38474 35175 ft 476 kts 46°
2026-04-25 15:31 44.95901 -71.30723 35139 ft 475 kts 46°
2026-04-25 15:31 44.99540 -71.22919 35135 ft 475 kts 46°
2026-04-25 15:32 45.03181 -71.15101 35137 ft 476 kts 47°
2026-04-25 15:32 45.06810 -71.07272 35135 ft 476 kts 47°
2026-04-25 15:33 45.12604 -70.96057 35132 ft 461 kts 37°
2026-04-25 15:33 45.16989 -70.89420 35128 ft 462 kts 38°
2026-04-25 15:34 45.21363 -70.82735 35134 ft 462 kts 38°
2026-04-25 15:34 45.24997 -70.77168 35130 ft 462 kts 38°
2026-04-25 15:35 45.32272 -70.65993 35122 ft 465 kts 38°
2026-04-25 15:36 45.38848 -70.55853 35123 ft 465 kts 38°
2026-04-25 15:36 45.43243 -70.49052 35125 ft 466 kts 38°
2026-04-25 15:37 45.47625 -70.42252 35150 ft 467 kts 39°
2026-04-25 15:37 45.52019 -70.35423 35127 ft 468 kts 39°
2026-04-25 15:38 45.56415 -70.28566 35127 ft 468 kts 39°
2026-04-25 15:38 45.60814 -70.21689 35126 ft 469 kts 39°
2026-04-25 15:39 45.65186 -70.14846 35129 ft 470 kts 41°
2026-04-25 15:39 45.69618 -70.07890 35129 ft 470 kts 41°
2026-04-25 15:40 45.73266 -70.02141 35130 ft 470 kts 41°
2026-04-25 15:40 45.78403 -69.94031 35131 ft 471 kts 41°
2026-04-25 15:41 45.82797 -69.87079 35140 ft 470 kts 42°
2026-04-25 15:41 45.87178 -69.80122 35131 ft 470 kts 42°
2026-04-25 15:42 45.91533 -69.73191 35125 ft 470 kts 42°
2026-04-25 15:42 45.95904 -69.66219 35121 ft 469 kts 42°
2026-04-25 15:43 46.00271 -69.59239 35127 ft 469 kts 43°
2026-04-25 15:43 46.04630 -69.52249 35122 ft 469 kts 43°
2026-04-25 15:44 46.08981 -69.45254 35117 ft 468 kts 43°
2026-04-25 15:44 46.13327 -69.38251 35136 ft 469 kts 43°
2026-04-25 15:45 46.17669 -69.31240 35122 ft 468 kts 44°
2026-04-25 15:45 46.21272 -69.25402 35118 ft 468 kts 44°
2026-04-25 15:46 46.26303 -69.17234 35118 ft 468 kts 44°
2026-04-25 15:46 46.30631 -69.10189 35117 ft 468 kts 44°
2026-04-25 15:47 46.34952 -69.03137 35125 ft 467 kts 44°
2026-04-25 15:47 46.39259 -68.96087 35126 ft 467 kts 44°
2026-04-25 15:48 46.43559 -68.89030 35116 ft 467 kts 44°
2026-04-25 15:48 46.47853 -68.81971 35107 ft 467 kts 45°
2026-04-25 15:49 46.52143 -68.74894 35108 ft 466 kts 45°
2026-04-25 15:49 46.56392 -68.67867 35113 ft 466 kts 45°
2026-04-25 15:50 46.60674 -68.60767 35120 ft 466 kts 45°
2026-04-25 15:50 46.64943 -68.53677 35125 ft 465 kts 46°
2026-04-25 15:51 46.68480 -68.47781 35128 ft 465 kts 46°
2026-04-25 15:51 46.73444 -68.39486 35105 ft 464 kts 46°
2026-04-25 15:52 46.77688 -68.32377 35111 ft 465 kts 46°
2026-04-25 15:52 46.81899 -68.25305 35096 ft 464 kts 46°
2026-04-25 15:53 46.86134 -68.18172 35082 ft 464 kts 46°
2026-04-25 15:53 46.90359 -68.11037 35079 ft 464 kts 46°
2026-04-25 15:54 46.94585 -68.03881 35080 ft 464 kts 47°
2026-04-25 15:54 46.98800 -67.96727 35096 ft 463 kts 47°
2026-04-25 15:55 47.02995 -67.89586 35092 ft 462 kts 47°
2026-04-25 15:55 47.07182 -67.82440 35093 ft 462 kts 47°
2026-04-25 15:56 47.11366 -67.75282 35106 ft 461 kts 47°
2026-04-25 15:56 47.15532 -67.68136 35096 ft 460 kts 47°
2026-04-25 15:57 47.19689 -67.60985 35092 ft 460 kts 47°
2026-04-25 15:57 47.23838 -67.53830 35088 ft 459 kts 47°
2026-04-25 15:58 47.27949 -67.46722 35104 ft 458 kts 48°
2026-04-25 15:58 47.32073 -67.39578 35099 ft 457 kts 48°
2026-04-25 15:59 47.36194 -67.32428 35088 ft 457 kts 48°
2026-04-25 15:59 47.40143 -67.25082 35064 ft 457 kts 50°
2026-04-25 16:00 47.42777 -67.20167 35092 ft 456 kts 50°
2026-04-25 16:00 47.48048 -67.10391 35094 ft 456 kts 50°
2026-04-25 16:01 47.51974 -67.03067 35089 ft 456 kts 50°
2026-04-25 16:01 47.55938 -66.95644 35086 ft 457 kts 50°
2026-04-25 16:02 47.59875 -66.88251 35063 ft 457 kts 50°
2026-04-25 16:02 47.63787 -66.80880 35059 ft 458 kts 50°
2026-04-25 16:03 47.67731 -66.73434 35083 ft 459 kts 50°
2026-04-25 16:03 47.71673 -66.65965 35079 ft 460 kts 50°
2026-04-25 16:04 47.75610 -66.58478 35083 ft 460 kts 50°
2026-04-25 16:04 47.79548 -66.50962 35079 ft 460 kts 50°
2026-04-25 16:05 47.83481 -66.43441 35080 ft 460 kts 50°
2026-04-25 16:06 47.89374 -66.32133 35075 ft 461 kts 50°
2026-04-25 16:06 47.93293 -66.24584 35078 ft 461 kts 50°
2026-04-25 16:07 47.97190 -66.17061 35072 ft 460 kts 50°
2026-04-25 16:07 48.01103 -66.09483 35069 ft 460 kts 50°
2026-04-25 16:08 48.05007 -66.01902 35059 ft 460 kts 50°
2026-04-25 16:08 48.08903 -65.94314 35051 ft 459 kts 50°
2026-04-25 16:09 48.12764 -65.86773 35049 ft 459 kts 50°
2026-04-25 16:09 48.16647 -65.79172 35052 ft 459 kts 51°
2026-04-25 16:10 48.20526 -65.71555 35043 ft 459 kts 51°
2026-04-25 16:10 48.24400 -65.63926 35046 ft 459 kts 51°
2026-04-25 16:11 48.28267 -65.56283 35043 ft 460 kts 50°
2026-04-25 16:11 48.32130 -65.48633 35036 ft 460 kts 51°
2026-04-25 16:12 48.35990 -65.40966 35045 ft 460 kts 50°
2026-04-25 16:12 48.39848 -65.33283 35042 ft 460 kts 51°
2026-04-25 16:13 48.43697 -65.25596 35036 ft 460 kts 51°
2026-04-25 16:13 48.47525 -65.17926 35037 ft 460 kts 51°
2026-04-25 16:14 48.51371 -65.10203 35034 ft 460 kts 51°
2026-04-25 16:14 48.55205 -65.02478 35037 ft 460 kts 51°
2026-04-25 16:15 48.59033 -64.94742 35052 ft 457 kts 51°
2026-04-25 16:15 48.62173 -64.88379 35037 ft 454 kts 51°
2026-04-25 16:16 48.65960 -64.80693 35036 ft 456 kts 51°
2026-04-25 16:16 48.69739 -64.72996 35043 ft 454 kts 51°
2026-04-25 16:17 48.73508 -64.65299 35055 ft 455 kts 51°
2026-04-25 16:17 48.77259 -64.57614 35038 ft 452 kts 51°
2026-04-25 16:18 48.80982 -64.49966 35033 ft 450 kts 51°
2026-04-25 16:18 48.84695 -64.42318 35052 ft 454 kts 51°
2026-04-25 16:19 48.88427 -64.34606 35050 ft 453 kts 51°
2026-04-25 16:19 48.92166 -64.26860 35039 ft 455 kts 51°
2026-04-25 16:20 48.97770 -64.15208 35021 ft 455 kts 51°
2026-04-25 16:21 49.03370 -64.03510 35029 ft 457 kts 51°
2026-04-25 16:21 49.07096 -63.95703 35015 ft 459 kts 51°
2026-04-25 16:22 49.10869 -63.87772 35018 ft 459 kts 51°
2026-04-25 16:22 49.14599 -63.79906 35005 ft 460 kts 51°
2026-04-25 16:23 49.18345 -63.71983 35008 ft 460 kts 51°
2026-04-25 16:23 49.22087 -63.64047 34998 ft 459 kts 52°
2026-04-25 16:24 49.25796 -63.56156 34990 ft 456 kts 52°
2026-04-25 16:24 49.29500 -63.48254 34980 ft 457 kts 52°
2026-04-25 16:25 49.33200 -63.40337 34979 ft 457 kts 52°
2026-04-25 16:25 49.36898 -63.32400 34980 ft 457 kts 52°
2026-04-25 16:26 49.40525 -63.24589 34980 ft 449 kts 52°
2026-04-25 16:26 49.44164 -63.16737 34980 ft 452 kts 52°
2026-04-25 16:27 49.47802 -63.08858 34964 ft 451 kts 52°
2026-04-25 16:27 49.51423 -63.00992 34962 ft 450 kts 51°
2026-04-25 16:28 49.55047 -62.93109 34961 ft 454 kts 52°
2026-04-25 16:28 49.58706 -62.85117 34972 ft 457 kts 52°
2026-04-25 16:29 49.62343 -62.77140 34976 ft 454 kts 52°
2026-04-25 16:29 49.65976 -62.69156 34957 ft 454 kts 52°
2026-04-25 16:30 49.69580 -62.61210 34969 ft 454 kts 52°
2026-04-25 16:30 49.73193 -62.53221 34948 ft 452 kts 52°
2026-04-25 16:31 49.76797 -62.45231 34949 ft 453 kts 52°
2026-04-25 16:31 49.80402 -62.37213 34944 ft 453 kts 52°
2026-04-25 16:32 49.83998 -62.29190 34936 ft 454 kts 52°
2026-04-25 16:32 49.87586 -62.21159 34926 ft 450 kts 52°
2026-04-25 16:33 49.91143 -62.13174 34935 ft 451 kts 53°
2026-04-25 16:33 49.94701 -62.05165 34917 ft 450 kts 53°
2026-04-25 16:34 49.98233 -61.97190 34911 ft 451 kts 53°
2026-04-25 16:34 50.01784 -61.89147 34906 ft 451 kts 53°
2026-04-25 16:35 50.05324 -61.81105 34905 ft 451 kts 53°
2026-04-25 16:35 50.08863 -61.73039 34906 ft 451 kts 53°
2026-04-25 16:36 50.12394 -61.64969 34907 ft 451 kts 53°
2026-04-25 16:36 50.15922 -61.56880 34906 ft 451 kts 53°
2026-04-25 16:37 50.19441 -61.48785 34905 ft 451 kts 53°
2026-04-25 16:37 50.22934 -61.40729 34901 ft 450 kts 53°
2026-04-25 16:38 50.26441 -61.32612 34900 ft 450 kts 53°
2026-04-25 16:38 50.29937 -61.24500 34895 ft 450 kts 53°
2026-04-25 16:39 50.33431 -61.16365 34892 ft 450 kts 53°
2026-04-25 16:39 50.36923 -61.08212 34880 ft 451 kts 54°
2026-04-25 16:40 50.40417 -61.00025 34881 ft 451 kts 54°
2026-04-25 16:40 50.43898 -60.91844 34882 ft 451 kts 54°
2026-04-25 16:41 50.47375 -60.83647 34885 ft 451 kts 54°
2026-04-25 16:41 50.52563 -60.71372 34886 ft 451 kts 54°
2026-04-25 16:42 50.56016 -60.63165 34894 ft 450 kts 54°
2026-04-25 16:42 50.59467 -60.54938 34894 ft 450 kts 54°
2026-04-25 16:43 50.62911 -60.46705 34898 ft 450 kts 54°
2026-04-25 16:43 50.66342 -60.38478 34901 ft 446 kts 55°
2026-04-25 16:44 50.69709 -60.30375 34887 ft 445 kts 55°
2026-04-25 16:44 50.73101 -60.22188 34886 ft 445 kts 55°
2026-04-25 16:45 50.76481 -60.14004 34890 ft 445 kts 55°
2026-04-25 16:45 50.79860 -60.05797 34888 ft 445 kts 55°
2026-04-25 16:46 50.83221 -59.97609 34890 ft 441 kts 55°
2026-04-25 16:46 50.85431 -59.92209 34893 ft 442 kts 55°
2026-04-25 16:47 50.89901 -59.81258 34882 ft 442 kts 55°
2026-04-25 16:47 50.93230 -59.73067 34879 ft 442 kts 55°
2026-04-25 16:48 50.96531 -59.64924 34891 ft 442 kts 56°
2026-04-25 16:48 50.99856 -59.56691 34890 ft 441 kts 56°
2026-04-25 16:49 51.03166 -59.48473 34871 ft 441 kts 56°
2026-04-25 16:49 51.06444 -59.40310 34869 ft 441 kts 56°
2026-04-25 16:50 51.09735 -59.32087 34868 ft 441 kts 56°
2026-04-25 16:50 51.13025 -59.23840 34878 ft 440 kts 56°
2026-04-25 16:51 51.16298 -59.15609 34875 ft 439 kts 56°
2026-04-25 16:51 51.18460 -59.10156 34873 ft 439 kts 56°
2026-04-25 16:52 51.22800 -58.99176 34843 ft 440 kts 56°
2026-04-25 16:52 51.26058 -58.90907 34845 ft 440 kts 56°
2026-04-25 16:53 51.30929 -58.78488 34847 ft 440 kts 56°
2026-04-25 16:54 51.34174 -58.70185 34845 ft 439 kts 56°
2026-04-25 16:54 51.37411 -58.61873 34829 ft 439 kts 56°
2026-04-25 16:55 51.40641 -58.53553 34830 ft 439 kts 56°
2026-04-25 16:55 51.43848 -58.45268 34836 ft 439 kts 57°
2026-04-25 16:56 51.47060 -58.36937 34836 ft 439 kts 57°
2026-04-25 16:56 51.50271 -58.28586 34833 ft 439 kts 57°
2026-04-25 16:57 51.53473 -58.20229 34835 ft 439 kts 57°
2026-04-25 16:57 51.56666 -58.11871 34826 ft 439 kts 57°
2026-04-25 16:58 51.59855 -58.03494 34816 ft 439 kts 57°
2026-04-25 16:58 51.63014 -57.95167 34823 ft 439 kts 57°
2026-04-25 16:59 51.66197 -57.86750 34816 ft 440 kts 57°
2026-04-25 16:59 51.69380 -57.78310 34822 ft 440 kts 57°
2026-04-25 17:00 51.72554 -57.69864 34805 ft 441 kts 57°
2026-04-25 17:00 51.75728 -57.61391 34818 ft 440 kts 58°
2026-04-25 17:01 51.78885 -57.52931 34817 ft 440 kts 58°
2026-04-25 17:01 51.82041 -57.44447 34819 ft 440 kts 58°
2026-04-25 17:02 51.85162 -57.36029 34815 ft 440 kts 58°
2026-04-25 17:02 51.88303 -57.27528 34808 ft 440 kts 58°
2026-04-25 17:03 51.91437 -57.19023 34814 ft 440 kts 58°
2026-04-25 17:03 51.94060 -57.11878 34825 ft 440 kts 58°
2026-04-25 17:04 51.97179 -57.03356 34817 ft 440 kts 58°
2026-04-25 17:04 52.00282 -56.94850 34824 ft 440 kts 58°
2026-04-25 17:05 52.03397 -56.86282 34834 ft 441 kts 58°
2026-04-25 17:05 52.08121 -56.73241 34824 ft 450 kts 59°
2026-04-25 17:06 52.11293 -56.64437 34831 ft 450 kts 59°
2026-04-25 17:06 52.14455 -56.55633 34832 ft 450 kts 59°
2026-04-25 17:07 52.17592 -56.46870 34837 ft 450 kts 59°
2026-04-25 17:07 52.20740 -56.38050 34820 ft 450 kts 59°
2026-04-25 17:08 52.23888 -56.29213 34822 ft 450 kts 59°
2026-04-25 17:08 52.27033 -56.20359 34812 ft 450 kts 59°
2026-04-25 17:09 52.30175 -56.11483 34810 ft 450 kts 59°
2026-04-25 17:09 52.33302 -56.02617 34805 ft 450 kts 59°
2026-04-25 17:10 52.36417 -55.93753 34820 ft 449 kts 59°
2026-04-25 17:10 52.39174 -55.84585 34814 ft 449 kts 67°
2026-04-25 17:11 52.41086 -55.74861 34806 ft 450 kts 76°
2026-04-25 17:11 52.42332 -55.64862 34790 ft 451 kts 76°
2026-04-25 17:12 52.43633 -55.54808 34775 ft 451 kts 76°
2026-04-25 17:12 52.44918 -55.44736 34777 ft 451 kts 76°
2026-04-25 17:13 52.45968 -55.36372 34786 ft 450 kts 77°
2026-04-25 17:13 52.47430 -55.24609 34750 ft 450 kts 77°
2026-04-25 17:14 52.48661 -55.14617 34747 ft 450 kts 77°
2026-04-25 17:14 52.49891 -55.04559 34740 ft 449 kts 77°
2026-04-25 17:15 52.51115 -54.94486 34718 ft 451 kts 77°
2026-04-25 17:15 52.52333 -54.84375 34708 ft 451 kts 77°
2026-04-25 17:16 52.53542 -54.74265 34722 ft 451 kts 77°
2026-04-25 17:16 52.54744 -54.64139 34709 ft 451 kts 77°
2026-04-25 17:17 52.55927 -54.54087 34702 ft 451 kts 77°
2026-04-25 17:17 52.57111 -54.43959 34702 ft 451 kts 77°
2026-04-25 17:18 52.58286 -54.33818 34692 ft 451 kts 77°
2026-04-25 17:18 52.59453 -54.23669 34692 ft 452 kts 78°
2026-04-25 17:19 52.60616 -54.13481 34673 ft 453 kts 78°
2026-04-25 17:19 52.61763 -54.03342 34670 ft 453 kts 78°
2026-04-25 17:20 52.62909 -53.93131 34675 ft 454 kts 78°
2026-04-25 17:20 52.64047 -53.82912 34674 ft 454 kts 78°
2026-04-25 17:21 52.65178 -53.72670 34665 ft 454 kts 78°
2026-04-25 17:21 52.66294 -53.62477 34666 ft 454 kts 78°
2026-04-25 17:22 52.67221 -53.53951 34661 ft 455 kts 78°
2026-04-25 17:22 52.68516 -53.41934 34641 ft 456 kts 78°
2026-04-25 17:23 52.69615 -53.31635 34644 ft 456 kts 79°
2026-04-25 17:23 52.70706 -53.21326 34637 ft 457 kts 79°
2026-04-25 17:24 52.71788 -53.11010 34637 ft 457 kts 79°
2026-04-25 17:24 52.72864 -53.00665 34641 ft 457 kts 79°
2026-04-25 17:25 52.73923 -52.90389 34637 ft 457 kts 79°
2026-04-25 17:25 52.74979 -52.80053 34626 ft 457 kts 79°
2026-04-25 17:26 52.76027 -52.69700 34624 ft 457 kts 79°
2026-04-25 17:26 52.77068 -52.59328 34614 ft 458 kts 79°
2026-04-25 17:27 52.78098 -52.48961 34611 ft 458 kts 79°
2026-04-25 17:27 52.78781 -52.42032 34614 ft 457 kts 79°
2026-04-25 17:28 52.80135 -52.28182 34600 ft 458 kts 79°
2026-04-25 17:28 52.81138 -52.17799 34604 ft 457 kts 80°
2026-04-25 17:29 52.82125 -52.07491 34598 ft 457 kts 80°
2026-04-25 17:29 52.83110 -51.97109 34580 ft 457 kts 80°
2026-04-25 17:30 52.84083 -51.86743 34581 ft 457 kts 80°
2026-04-25 17:30 52.85047 -51.76368 34581 ft 457 kts 80°
2026-04-25 17:31 52.86005 -51.65966 34577 ft 457 kts 80°
2026-04-25 17:31 52.86952 -51.55580 34585 ft 456 kts 80°
2026-04-25 17:32 52.87888 -51.45204 34590 ft 456 kts 81°
2026-04-25 17:32 52.88809 -51.34893 34578 ft 456 kts 81°
2026-04-25 17:33 52.89729 -51.24497 34584 ft 456 kts 81°
2026-04-25 17:33 52.90639 -51.14097 34583 ft 456 kts 81°
2026-04-25 17:34 52.91539 -51.03699 34576 ft 456 kts 81°
2026-04-25 17:34 52.92431 -50.93294 34576 ft 455 kts 81°
2026-04-25 17:35 52.93306 -50.82979 34584 ft 455 kts 81°
2026-04-25 17:35 52.94178 -50.72581 34578 ft 454 kts 81°
2026-04-25 17:36 52.95041 -50.62175 34595 ft 455 kts 81°
2026-04-25 17:36 52.95896 -50.51768 34593 ft 455 kts 81°
2026-04-25 17:37 52.96742 -50.41353 34572 ft 455 kts 82°
2026-04-25 17:37 52.97574 -50.30994 34565 ft 455 kts 82°
2026-04-25 17:38 52.98128 -50.24026 34545 ft 455 kts 82°
2026-04-25 17:38 52.99225 -50.10164 34556 ft 455 kts 82°
2026-04-25 17:39 53.00043 -49.99743 34558 ft 455 kts 82°
2026-04-25 17:39 53.01320 -49.89469 34556 ft 454 kts 75°
2026-04-25 17:40 53.02906 -49.79314 34548 ft 454 kts 76°
2026-04-25 17:40 53.04405 -49.69168 34560 ft 454 kts 76°
2026-04-25 17:41 53.05870 -49.58921 34554 ft 455 kts 77°
2026-04-25 17:41 53.07320 -49.48658 34551 ft 455 kts 77°
2026-04-25 17:42 53.08759 -49.38391 34551 ft 456 kts 77°
2026-04-25 17:42 53.10187 -49.28110 34559 ft 456 kts 77°
2026-04-25 17:43 53.11604 -49.17818 34565 ft 455 kts 77°
2026-04-25 17:43 53.13004 -49.07587 34550 ft 456 kts 77°
2026-04-25 17:44 53.14405 -48.97284 34549 ft 455 kts 77°
2026-04-25 17:44 53.15796 -48.86968 34555 ft 455 kts 77°
2026-04-25 17:45 53.16714 -48.80127 34554 ft 456 kts 77°
2026-04-25 17:45 53.18555 -48.66307 34541 ft 457 kts 78°
2026-04-25 17:46 53.19914 -48.56016 34542 ft 457 kts 78°
2026-04-25 17:46 53.21273 -48.45653 34542 ft 457 kts 78°
2026-04-25 17:47 53.22625 -48.35264 34537 ft 457 kts 78°
2026-04-25 17:47 53.23966 -48.24885 34547 ft 458 kts 78°
2026-04-25 17:48 53.25964 -48.09285 34548 ft 458 kts 78°
2026-04-25 17:49 53.27062 -48.00633 34543 ft 458 kts 78°
2026-04-25 17:49 53.28376 -47.90209 34552 ft 458 kts 78°
2026-04-25 17:50 53.29684 -47.79766 34549 ft 459 kts 79°
2026-04-25 17:50 53.30982 -47.69307 34546 ft 459 kts 79°
2026-04-25 17:51 53.32262 -47.58917 34546 ft 459 kts 79°
2026-04-25 17:51 53.33540 -47.48457 34544 ft 458 kts 79°
2026-04-25 17:52 53.34811 -47.37989 34546 ft 458 kts 79°
2026-04-25 17:52 53.36072 -47.27515 34537 ft 458 kts 79°
2026-04-25 17:53 53.37322 -47.17050 34551 ft 459 kts 80°
2026-04-25 17:53 53.38557 -47.06621 34543 ft 459 kts 80°
2026-04-25 17:54 53.39790 -46.96130 34537 ft 459 kts 80°
2026-04-25 17:54 53.41016 -46.85622 34541 ft 460 kts 80°
2026-04-25 17:55 53.42233 -46.75097 34551 ft 460 kts 80°
2026-04-25 17:55 53.43442 -46.64559 34548 ft 460 kts 80°
2026-04-25 17:56 53.44641 -46.54017 34546 ft 460 kts 80°
2026-04-25 17:56 53.45831 -46.43475 34548 ft 460 kts 80°
2026-04-25 17:57 53.47010 -46.32924 34550 ft 460 kts 81°
2026-04-25 17:57 53.48182 -46.22366 34542 ft 460 kts 81°
2026-04-25 17:58 53.49335 -46.11882 34537 ft 460 kts 81°
2026-04-25 17:58 53.50490 -46.01306 34548 ft 460 kts 81°
2026-04-25 17:59 53.51636 -45.90698 34568 ft 462 kts 81°
2026-04-25 17:59 53.52777 -45.80055 34571 ft 463 kts 81°
2026-04-25 18:00 53.53908 -45.69413 34557 ft 461 kts 81°
2026-04-25 18:00 53.55024 -45.58813 34563 ft 460 kts 81°
2026-04-25 18:01 53.56129 -45.48226 34541 ft 459 kts 82°
2026-04-25 18:01 53.57225 -45.37638 34564 ft 459 kts 82°
2026-04-25 18:02 53.58303 -45.27115 34563 ft 459 kts 82°
2026-04-25 18:02 53.59380 -45.16500 34560 ft 460 kts 82°
2026-04-25 18:03 53.60448 -45.05899 34581 ft 459 kts 82°
2026-04-25 18:03 53.61504 -44.95295 34566 ft 459 kts 82°
2026-04-25 18:04 53.62552 -44.84682 34566 ft 458 kts 83°
2026-04-25 18:04 53.63589 -44.74087 34569 ft 459 kts 83°
2026-04-25 18:05 53.64610 -44.63537 34579 ft 459 kts 83°
2026-04-25 18:05 53.65631 -44.52899 34578 ft 459 kts 83°
2026-04-25 18:06 53.66642 -44.42258 34579 ft 459 kts 83°
2026-04-25 18:06 53.67645 -44.31597 34590 ft 460 kts 83°
2026-04-25 18:07 53.68638 -44.20948 34583 ft 460 kts 83°
2026-04-25 18:07 53.69623 -44.10261 34583 ft 461 kts 83°
2026-04-25 18:08 53.70602 -43.99535 34588 ft 462 kts 83°
2026-04-25 18:08 53.71565 -43.88867 34600 ft 463 kts 84°
2026-04-25 18:09 53.72527 -43.78115 34601 ft 463 kts 84°
2026-04-25 18:09 53.73478 -43.67361 34585 ft 463 kts 84°
2026-04-25 18:10 53.74422 -43.56596 34612 ft 462 kts 84°
2026-04-25 18:10 53.75354 -43.45832 34613 ft 462 kts 84°
2026-04-25 18:11 53.76276 -43.35070 34620 ft 462 kts 84°
2026-04-25 18:11 53.77189 -43.24296 34594 ft 464 kts 85°
2026-04-25 18:12 53.78091 -43.13549 34605 ft 465 kts 85°
2026-04-25 18:12 53.78990 -43.02704 34616 ft 465 kts 85°
2026-04-25 18:13 53.79880 -42.91853 34629 ft 466 kts 85°
2026-04-25 18:13 53.80759 -42.80996 34634 ft 466 kts 85°
2026-04-25 18:14 53.82062 -42.64667 34645 ft 466 kts 86°
2026-04-25 18:14 53.82919 -42.53778 34645 ft 466 kts 86°
2026-04-25 18:15 53.83765 -42.42898 34637 ft 466 kts 86°
2026-04-25 18:15 53.84602 -42.32001 34652 ft 466 kts 86°
2026-04-25 18:16 53.85428 -42.21110 34651 ft 466 kts 86°
2026-04-25 18:17 53.86642 -42.04849 34658 ft 466 kts 86°
2026-04-25 18:17 53.87445 -41.93934 34665 ft 466 kts 86°
2026-04-25 18:18 53.88236 -41.83039 34644 ft 465 kts 86°
2026-04-25 18:18 53.89015 -41.72158 34657 ft 465 kts 86°
2026-04-25 18:19 53.89787 -41.61249 34668 ft 466 kts 86°
2026-04-25 18:19 53.90548 -41.50336 34671 ft 466 kts 87°
2026-04-25 18:20 53.91296 -41.39490 34678 ft 466 kts 87°
2026-04-25 18:20 53.92040 -41.28572 34675 ft 466 kts 88°
2026-04-25 18:21 53.92770 -41.17643 34677 ft 466 kts 88°
2026-04-25 18:21 53.93491 -41.06705 34678 ft 467 kts 88°
2026-04-25 18:22 53.94206 -40.95736 34686 ft 468 kts 88°
2026-04-25 18:22 53.94912 -40.84744 34691 ft 468 kts 88°
2026-04-25 18:23 53.95609 -40.73742 34696 ft 468 kts 88°
2026-04-25 18:23 53.96294 -40.62754 34702 ft 468 kts 88°
2026-04-25 18:24 53.96970 -40.51739 34702 ft 468 kts 88°
2026-04-25 18:24 53.97638 -40.40746 34713 ft 467 kts 89°
2026-04-25 18:25 53.98300 -40.29763 34711 ft 467 kts 89°
2026-04-25 18:25 53.98952 -40.18782 34710 ft 467 kts 89°
2026-04-25 18:26 53.99591 -40.07877 34710 ft 466 kts 89°
2026-04-25 18:26 54.00155 -39.96905 34692 ft 465 kts 91°
2026-04-25 18:27 54.00517 -39.85932 34694 ft 466 kts 90°
2026-04-25 18:27 54.00980 -39.74926 34702 ft 467 kts 90°
2026-04-25 18:28 54.01432 -39.63898 34718 ft 467 kts 90°
2026-04-25 18:28 54.01864 -39.52863 34713 ft 468 kts 91°
2026-04-25 18:29 54.02486 -39.36358 34731 ft 468 kts 91°
2026-04-25 18:30 54.03268 -39.14228 34726 ft 470 kts 91°
2026-04-25 18:30 54.03646 -39.03100 34733 ft 471 kts 91°
2026-04-25 18:31 54.04011 -38.92028 34750 ft 471 kts 91°
2026-04-25 18:31 54.04368 -38.80904 34754 ft 471 kts 91°
2026-04-25 18:32 54.04660 -38.71563 34754 ft 471 kts 91°
2026-04-25 18:32 54.05019 -38.59737 34725 ft 473 kts 91°
2026-04-25 18:33 54.05347 -38.48554 34740 ft 474 kts 91°
2026-04-25 18:33 54.05666 -38.37339 34758 ft 475 kts 92°
2026-04-25 18:34 54.05973 -38.26184 34760 ft 475 kts 92°
2026-04-25 18:34 54.06272 -38.14958 34773 ft 475 kts 92°
2026-04-25 18:35 54.06513 -38.05619 34775 ft 475 kts 92°
2026-04-25 18:35 54.06839 -37.92454 34751 ft 477 kts 92°
2026-04-25 18:36 54.07106 -37.81225 34766 ft 478 kts 92°
2026-04-25 18:36 54.07365 -37.69905 34773 ft 479 kts 92°
2026-04-25 18:37 54.07575 -37.60412 34781 ft 479 kts 92°
2026-04-25 18:37 54.07813 -37.49146 34784 ft 479 kts 92°
2026-04-25 18:38 54.08042 -37.37799 34772 ft 480 kts 92°
2026-04-25 18:38 54.08261 -37.26423 34774 ft 481 kts 92°
2026-04-25 18:39 54.08469 -37.15020 34783 ft 482 kts 92°
2026-04-25 18:39 54.08668 -37.03601 34795 ft 482 kts 92°
2026-04-25 18:40 54.08854 -36.92249 34797 ft 483 kts 93°
2026-04-25 18:40 54.09031 -36.80825 34806 ft 483 kts 93°
2026-04-25 18:41 54.09196 -36.69392 34778 ft 484 kts 93°
2026-04-25 18:41 54.09350 -36.57997 34797 ft 485 kts 93°
2026-04-25 18:42 54.09473 -36.48368 34805 ft 486 kts 93°
2026-04-25 18:42 54.09630 -36.34991 34809 ft 486 kts 93°
2026-04-25 18:43 54.09754 -36.23467 34815 ft 486 kts 93°
2026-04-25 18:43 54.09866 -36.11944 34817 ft 486 kts 93°
2026-04-25 18:44 54.09966 -36.00411 34804 ft 488 kts 93°
2026-04-25 18:44 54.10057 -35.88920 34814 ft 489 kts 93°
2026-04-25 18:45 54.10137 -35.77333 34827 ft 489 kts 93°
2026-04-25 18:45 54.10205 -35.65740 34831 ft 490 kts 93°
2026-04-25 18:46 54.10263 -35.54139 34839 ft 490 kts 94°
2026-04-25 18:46 54.10309 -35.42538 34820 ft 491 kts 93°
2026-04-25 18:47 54.10344 -35.30895 34837 ft 492 kts 94°
2026-04-25 18:47 54.10369 -35.19238 34842 ft 492 kts 94°
2026-04-25 18:48 54.10382 -35.07639 34848 ft 493 kts 94°
2026-04-25 18:48 54.10384 -34.95973 34842 ft 493 kts 94°
2026-04-25 18:49 54.10374 -34.84290 34845 ft 493 kts 94°
2026-04-25 18:49 54.10352 -34.72594 34840 ft 494 kts 94°
2026-04-25 18:50 54.10320 -34.60867 34858 ft 496 kts 94°
2026-04-25 18:50 54.10277 -34.49127 34862 ft 496 kts 94°
2026-04-25 18:51 54.10231 -34.39349 34865 ft 496 kts 94°
2026-04-25 18:51 54.10155 -34.25686 34869 ft 497 kts 94°
2026-04-25 18:52 54.10077 -34.13924 34877 ft 497 kts 94°
2026-04-25 18:52 54.09987 -34.02155 34875 ft 496 kts 94°
2026-04-25 18:53 54.09887 -33.90478 34875 ft 496 kts 94°
2026-04-25 18:53 54.09774 -33.78738 34875 ft 496 kts 94°
2026-04-25 18:54 54.09584 -33.61111 34874 ft 496 kts 94°
2026-04-25 18:55 54.09443 -33.49366 34866 ft 497 kts 94°
2026-04-25 18:55 54.09291 -33.37669 34867 ft 498 kts 94°
2026-04-25 18:56 54.09127 -33.25882 34879 ft 498 kts 95°
2026-04-25 18:56 54.08951 -33.14077 34882 ft 499 kts 95°
2026-04-25 18:57 54.08763 -33.02268 34885 ft 499 kts 95°
2026-04-25 18:57 54.08563 -32.90450 34893 ft 499 kts 95°
2026-04-25 18:58 54.08352 -32.78735 34895 ft 498 kts 94°
2026-04-25 18:58 54.08015 -32.61043 34895 ft 498 kts 95°
2026-04-25 18:59 54.07525 -32.37448 34897 ft 498 kts 95°
2026-04-25 19:00 54.07126 -32.19763 34886 ft 499 kts 95°
2026-04-25 19:01 54.06703 -32.02142 34892 ft 500 kts 95°
2026-04-25 19:01 54.06405 -31.90308 34903 ft 500 kts 95°
2026-04-25 19:02 54.05936 -31.72572 34912 ft 500 kts 95°
2026-04-25 19:03 54.05496 -31.56791 34896 ft 501 kts 95°
2026-04-25 19:03 54.05092 -31.42911 34903 ft 503 kts 95°
2026-04-25 19:04 54.04550 -31.25048 34899 ft 504 kts 95°
2026-04-25 19:05 54.03787 -31.01304 34923 ft 504 kts 95°
2026-04-25 19:06 54.03384 -30.89373 34905 ft 506 kts 95°
2026-04-25 19:06 54.02758 -30.71413 34922 ft 507 kts 95°
2026-04-25 19:07 54.02105 -30.53432 34927 ft 508 kts 96°
2026-04-25 19:08 54.01428 -30.35458 34942 ft 508 kts 96°
2026-04-25 19:09 54.00578 -30.13466 34930 ft 510 kts 96°
2026-04-25 19:10 53.99960 -29.93437 34942 ft 512 kts 88°
2026-04-25 19:10 54.00578 -29.81356 34942 ft 513 kts 85°
2026-04-25 19:11 54.01191 -29.69270 34950 ft 513 kts 86°
2026-04-25 19:11 54.01690 -29.57220 34933 ft 514 kts 87°
2026-04-25 19:12 54.02159 -29.45087 34946 ft 514 kts 87°
2026-04-25 19:12 54.02605 -29.32943 34950 ft 514 kts 88°
2026-04-25 19:13 54.03036 -29.20791 34939 ft 514 kts 88°
2026-04-25 19:13 54.03453 -29.08649 34946 ft 515 kts 87°
2026-04-25 19:14 54.03860 -28.96487 34953 ft 515 kts 88°
2026-04-25 19:14 54.04255 -28.84311 34954 ft 515 kts 88°
2026-04-25 19:15 54.04638 -28.72134 34957 ft 515 kts 88°
2026-04-25 19:15 54.05009 -28.59946 34959 ft 515 kts 88°
2026-04-25 19:16 54.05363 -28.47843 34951 ft 516 kts 88°
2026-04-25 19:16 54.05709 -28.35653 34953 ft 516 kts 88°
2026-04-25 19:17 54.06044 -28.23451 34958 ft 516 kts 88°
2026-04-25 19:17 54.06366 -28.11244 34956 ft 516 kts 88°
2026-04-25 19:18 54.06675 -27.99049 34956 ft 516 kts 88°
2026-04-25 19:18 54.06970 -27.86904 34955 ft 515 kts 88°
2026-04-25 19:19 54.07256 -27.74630 34958 ft 516 kts 88°
2026-04-25 19:19 54.07527 -27.62494 34956 ft 516 kts 88°
2026-04-25 19:20 54.07786 -27.50290 34957 ft 516 kts 89°
2026-04-25 19:20 54.08033 -27.38069 34969 ft 516 kts 88°
2026-04-25 19:21 54.08268 -27.25846 34961 ft 516 kts 88°
2026-04-25 19:21 54.08598 -27.07497 34963 ft 517 kts 89°
2026-04-25 19:22 54.08802 -26.95332 34967 ft 517 kts 89°
2026-04-25 19:23 54.09085 -26.76981 34966 ft 517 kts 89°
2026-04-25 19:23 54.09340 -26.58606 34965 ft 517 kts 89°
2026-04-25 19:24 54.09496 -26.46351 34968 ft 517 kts 89°
2026-04-25 19:25 54.09768 -26.21828 34982 ft 518 kts 89°
2026-04-25 19:25 54.09886 -26.09547 34965 ft 518 kts 89°
2026-04-25 19:26 54.09991 -25.97273 34968 ft 518 kts 89°
2026-04-25 19:26 54.10084 -25.85002 34968 ft 518 kts 89°
2026-04-25 19:27 54.10139 -25.76870 34967 ft 518 kts 90°
2026-04-25 19:27 54.10232 -25.60522 34954 ft 518 kts 90°
2026-04-25 19:28 54.10288 -25.48221 34938 ft 519 kts 90°
2026-04-25 19:28 54.10332 -25.35929 34968 ft 518 kts 90°
2026-04-25 19:29 54.10362 -25.23646 34974 ft 518 kts 90°
2026-04-25 19:29 54.10380 -25.11363 34973 ft 518 kts 90°
2026-04-25 19:30 54.10386 -24.99083 34978 ft 519 kts 90°
2026-04-25 19:30 54.10379 -24.86861 34978 ft 519 kts 91°
2026-04-25 19:31 54.10359 -24.74564 34976 ft 519 kts 91°
2026-04-25 19:31 54.10327 -24.62259 34976 ft 519 kts 91°
2026-04-25 19:32 54.10282 -24.49964 34981 ft 519 kts 91°
2026-04-25 19:32 54.10246 -24.41735 34982 ft 519 kts 91°
2026-04-25 19:33 54.10156 -24.25349 34979 ft 519 kts 91°
2026-04-25 19:33 54.10089 -24.15155 34989 ft 518 kts 91°
2026-04-25 19:34 54.09997 -24.02889 34988 ft 518 kts 92°
2026-04-25 19:34 54.09891 -23.90616 34987 ft 517 kts 92°
2026-04-25 19:35 54.09775 -23.78350 34984 ft 518 kts 92°
2026-04-25 19:35 54.09645 -23.66073 34979 ft 518 kts 92°
2026-04-25 19:36 54.09502 -23.53805 34980 ft 518 kts 92°
2026-04-25 19:36 54.09348 -23.41620 34990 ft 518 kts 92°
2026-04-25 19:37 54.09181 -23.29342 34990 ft 518 kts 93°
2026-04-25 19:37 54.09002 -23.17067 34992 ft 518 kts 93°
2026-04-25 19:38 54.08809 -23.04781 34988 ft 518 kts 93°
2026-04-25 19:38 54.08604 -22.92503 35000 ft 517 kts 93°
2026-04-25 19:39 54.08387 -22.80265 35001 ft 517 kts 94°
2026-04-25 19:39 54.08160 -22.68095 34999 ft 516 kts 94°
2026-04-25 19:40 54.07919 -22.55862 34998 ft 516 kts 94°
2026-04-25 19:40 54.07666 -22.43648 35001 ft 516 kts 94°
2026-04-25 19:41 54.07399 -22.31413 35004 ft 516 kts 94°
2026-04-25 19:41 54.07169 -22.21240 35005 ft 516 kts 94°
2026-04-25 19:42 54.06831 -22.07016 34998 ft 516 kts 94°
2026-04-25 19:42 54.06527 -21.94786 35006 ft 516 kts 95°
2026-04-25 19:43 54.06211 -21.82578 35008 ft 516 kts 95°
2026-04-25 19:43 54.05884 -21.70372 35007 ft 516 kts 95°
2026-04-25 19:44 54.05543 -21.58173 35012 ft 516 kts 95°
2026-04-25 19:44 54.05195 -21.46071 35010 ft 516 kts 95°
2026-04-25 19:45 54.04829 -21.33843 35012 ft 516 kts 95°
2026-04-25 19:45 54.04451 -21.21630 35013 ft 517 kts 95°
2026-04-25 19:46 54.04060 -21.09410 35014 ft 517 kts 95°
2026-04-25 19:46 54.03658 -20.97207 35021 ft 517 kts 96°
2026-04-25 19:47 54.03244 -20.84997 35024 ft 517 kts 96°
2026-04-25 19:47 54.02819 -20.72872 35025 ft 517 kts 96°
2026-04-25 19:48 54.02378 -20.60660 35027 ft 517 kts 96°
2026-04-25 19:48 54.01925 -20.48436 35014 ft 516 kts 96°
2026-04-25 19:49 54.01544 -20.38331 35052 ft 514 kts 96°
2026-04-25 19:49 54.01005 -20.24226 35049 ft 513 kts 96°
2026-04-25 19:50 54.00290 -20.06080 35045 ft 512 kts 96°
2026-04-25 19:51 53.99920 -19.93988 35051 ft 513 kts 91°
2026-04-25 19:51 54.00242 -19.81838 35049 ft 514 kts 89°
2026-04-25 19:52 54.00576 -19.69702 35058 ft 513 kts 90°
2026-04-25 19:52 54.00816 -19.57577 35056 ft 513 kts 91°
2026-04-25 19:53 54.01018 -19.45450 35057 ft 513 kts 91°
2026-04-25 19:53 54.01206 -19.33391 35057 ft 513 kts 91°
2026-04-25 19:54 54.01385 -19.21281 35079 ft 511 kts 91°
2026-04-25 19:54 54.01551 -19.09186 35073 ft 511 kts 91°
2026-04-25 19:55 54.01704 -18.97107 35070 ft 511 kts 91°
2026-04-25 19:55 54.01844 -18.85061 35088 ft 509 kts 91°
2026-04-25 19:56 54.01973 -18.73025 35066 ft 508 kts 91°
2026-04-25 19:56 54.02089 -18.61111 35077 ft 507 kts 91°
2026-04-25 19:57 54.02193 -18.49145 35072 ft 506 kts 92°
2026-04-25 19:57 54.02285 -18.37168 35073 ft 506 kts 92°
2026-04-25 19:58 54.02366 -18.25194 35070 ft 506 kts 92°
2026-04-25 19:58 54.02435 -18.13230 35083 ft 505 kts 92°
2026-04-25 19:59 54.02491 -18.01302 35092 ft 504 kts 92°
2026-04-25 19:59 54.02536 -17.89453 35098 ft 504 kts 92°
2026-04-25 20:00 54.02569 -17.77531 35086 ft 503 kts 92°
2026-04-25 20:00 54.02590 -17.65603 35103 ft 503 kts 92°
2026-04-25 20:01 54.02600 -17.47763 35099 ft 502 kts 92°
2026-04-25 20:01 54.02591 -17.35871 35102 ft 502 kts 93°
2026-04-25 20:02 54.02571 -17.23988 35098 ft 502 kts 93°
2026-04-25 20:02 54.02540 -17.12197 35111 ft 501 kts 93°
2026-04-25 20:03 54.02498 -17.00327 35105 ft 501 kts 93°
2026-04-25 20:03 54.02443 -16.88467 35107 ft 502 kts 94°
2026-04-25 20:04 54.02375 -16.76602 35109 ft 502 kts 94°
2026-04-25 20:04 54.02297 -16.64736 35113 ft 502 kts 94°
2026-04-25 20:05 54.02208 -16.52933 35117 ft 502 kts 94°
2026-04-25 20:05 54.02106 -16.41057 35126 ft 502 kts 94°
2026-04-25 20:06 54.01993 -16.29189 35130 ft 502 kts 94°
2026-04-25 20:06 54.01868 -16.17319 35130 ft 502 kts 94°
2026-04-25 20:07 54.01732 -16.05455 35130 ft 502 kts 94°
2026-04-25 20:07 54.01585 -15.93587 35119 ft 502 kts 95°
2026-04-25 20:08 54.01425 -15.81787 35122 ft 502 kts 95°
2026-04-25 20:08 54.01252 -15.69831 35135 ft 503 kts 95°
2026-04-25 20:09 54.01069 -15.58020 35143 ft 503 kts 95°
2026-04-25 20:09 54.00874 -15.46134 35109 ft 503 kts 95°
2026-04-25 20:10 54.00668 -15.34233 35128 ft 504 kts 95°
2026-04-25 20:10 54.00447 -15.22305 35138 ft 505 kts 95°
2026-04-25 20:11 54.00220 -15.10378 35153 ft 505 kts 95°
2026-04-25 20:11 53.99988 -14.98438 35156 ft 505 kts 95°
2026-04-25 20:12 53.99988 -14.86534 35144 ft 507 kts 92°
2026-04-25 20:12 54.00048 -14.78521 35158 ft 506 kts 93°
2026-04-25 20:13 54.00103 -14.62576 35161 ft 506 kts 93°
2026-04-25 20:13 54.00110 -14.50607 35164 ft 506 kts 94°
2026-04-25 20:14 54.00104 -14.38628 35162 ft 506 kts 94°
2026-04-25 20:14 54.00087 -14.26680 35168 ft 506 kts 94°
2026-04-25 20:15 54.00057 -14.14716 35169 ft 506 kts 94°
2026-04-25 20:15 53.99788 -14.02823 35167 ft 501 kts 101°
2026-04-25 20:16 53.98274 -13.91340 35170 ft 494 kts 113°
2026-04-25 20:16 53.96008 -13.80408 35171 ft 494 kts 114°
2026-04-25 20:17 53.93767 -13.69393 35173 ft 493 kts 113°
2026-04-25 20:17 53.91527 -13.58390 35175 ft 493 kts 113°
2026-04-25 20:18 53.89273 -13.47395 35180 ft 493 kts 113°
2026-04-25 20:18 53.86997 -13.36392 35184 ft 493 kts 114°
2026-04-25 20:19 53.84714 -13.25431 35185 ft 493 kts 114°
2026-04-25 20:19 53.82421 -13.14482 35180 ft 493 kts 114°
2026-04-25 20:20 53.80120 -13.03556 35186 ft 493 kts 114°
2026-04-25 20:20 53.77807 -12.92624 35180 ft 493 kts 114°
2026-04-25 20:21 53.75497 -12.81769 35189 ft 494 kts 114°
2026-04-25 20:21 53.73162 -12.70858 35192 ft 494 kts 114°
2026-04-25 20:22 53.71596 -12.63569 35205 ft 494 kts 114°
2026-04-25 20:22 53.68853 -12.50871 35193 ft 494 kts 114°
2026-04-25 20:23 53.66487 -12.39977 35198 ft 494 kts 114°
2026-04-25 20:23 53.64109 -12.29089 35200 ft 494 kts 114°
2026-04-25 20:24 53.61725 -12.18224 35192 ft 494 kts 114°
2026-04-25 20:24 53.59333 -12.07385 35235 ft 493 kts 114°
2026-04-25 20:25 53.56934 -11.96573 35231 ft 493 kts 114°
2026-04-25 20:25 53.54526 -11.85777 35236 ft 493 kts 114°
2026-04-25 20:26 53.52122 -11.75046 35235 ft 493 kts 114°
2026-04-25 20:26 53.49696 -11.64277 35232 ft 492 kts 114°
2026-04-25 20:27 53.47259 -11.53514 35227 ft 492 kts 114°
2026-04-25 20:27 53.44818 -11.42789 35216 ft 491 kts 115°
2026-04-25 20:28 53.42391 -11.32183 35207 ft 489 kts 114°
2026-04-25 20:28 53.39947 -11.21552 35208 ft 489 kts 115°
2026-04-25 20:29 53.37495 -11.10938 35208 ft 489 kts 115°
2026-04-25 20:29 53.35029 -11.00318 35208 ft 489 kts 115°
2026-04-25 20:30 53.32554 -10.89714 35214 ft 489 kts 115°
2026-04-25 20:30 53.30087 -10.79193 35214 ft 488 kts 115°
2026-04-25 20:31 53.27597 -10.68630 35211 ft 488 kts 115°
2026-04-25 20:31 53.25099 -10.58081 35208 ft 488 kts 115°
2026-04-25 20:32 53.22592 -10.47546 35212 ft 488 kts 115°
2026-04-25 20:32 53.20073 -10.37015 35213 ft 489 kts 115°
2026-04-25 20:33 53.17544 -10.26491 35210 ft 489 kts 115°
2026-04-25 20:33 53.15436 -10.17761 35210 ft 489 kts 115°
2026-04-25 20:34 53.12456 -10.05474 35214 ft 489 kts 115°
2026-04-25 20:34 53.09896 -9.94972 35218 ft 489 kts 115°
2026-04-25 20:35 53.07327 -9.84488 35211 ft 490 kts 115°
2026-04-25 20:35 53.04748 -9.74010 35215 ft 489 kts 115°
2026-04-25 20:36 53.02175 -9.63608 35227 ft 489 kts 115°
2026-04-25 20:36 52.99577 -9.53154 35217 ft 489 kts 115°
2026-04-25 20:37 52.96968 -9.42703 35206 ft 490 kts 116°
2026-04-25 20:37 52.94354 -9.32283 35222 ft 490 kts 116°
2026-04-25 20:38 52.91728 -9.21865 35226 ft 490 kts 116°
2026-04-25 20:38 52.89094 -9.11461 35202 ft 490 kts 116°
2026-04-25 20:39 52.86462 -9.01121 35208 ft 490 kts 116°
2026-04-25 20:39 52.84253 -8.92473 35212 ft 490 kts 116°
2026-04-25 20:40 52.81131 -8.80316 35211 ft 495 kts 116°
2026-04-25 20:40 52.78418 -8.69807 35206 ft 499 kts 116°
2026-04-25 20:41 52.75680 -8.59241 35203 ft 501 kts 116°
2026-04-25 20:41 52.72948 -8.48747 35209 ft 501 kts 116°
2026-04-25 20:42 52.70188 -8.38192 35193 ft 501 kts 116°
2026-04-25 20:42 52.67414 -8.27641 35202 ft 502 kts 116°
2026-04-25 20:43 52.64626 -8.17080 35209 ft 503 kts 116°
2026-04-25 20:43 52.61824 -8.06517 35214 ft 503 kts 116°
2026-04-25 20:44 52.59014 -7.95974 35212 ft 503 kts 116°
2026-04-25 20:44 52.56189 -7.85423 35214 ft 503 kts 116°
2026-04-25 20:45 52.53357 -7.74891 35210 ft 503 kts 116°
2026-04-25 20:45 52.50536 -7.64449 35202 ft 503 kts 116°
2026-04-25 20:46 52.47685 -7.53947 35204 ft 504 kts 117°
2026-04-25 20:46 52.44815 -7.43421 35218 ft 504 kts 116°
2026-04-25 20:47 52.41941 -7.32927 35215 ft 504 kts 116°
2026-04-25 20:47 52.39059 -7.22454 35218 ft 504 kts 117°
2026-04-25 20:48 52.36168 -7.11991 35217 ft 504 kts 117°
2026-04-25 20:48 52.33265 -7.01537 35218 ft 504 kts 117°
2026-04-25 20:49 52.30377 -6.91180 35203 ft 504 kts 117°
2026-04-25 20:49 52.27453 -6.80743 35210 ft 505 kts 117°
2026-04-25 20:50 52.24520 -6.70318 35214 ft 505 kts 117°
2026-04-25 20:50 52.21576 -6.59900 35217 ft 505 kts 117°
2026-04-25 20:51 52.18622 -6.49497 35221 ft 505 kts 117°
2026-04-25 20:51 52.15661 -6.39110 35221 ft 505 kts 117°
2026-04-25 20:52 52.13196 -6.30494 35226 ft 505 kts 117°
2026-04-25 20:52 52.09727 -6.18392 35207 ft 505 kts 117°
2026-04-25 20:53 52.06747 -6.08037 35213 ft 506 kts 117°
2026-04-25 20:53 52.03282 -5.98260 35216 ft 500 kts 133°
2026-04-25 20:54 52.00841 -5.94267 35219 ft 495 kts 144°
2026-04-25 20:54 51.98015 -5.91143 35215 ft 490 kts 155°
2026-04-25 20:54 51.91746 -5.87062 35218 ft 485 kts 164°
2026-04-25 20:55 51.85395 -5.83324 35218 ft 486 kts 164°
2026-04-25 20:55 51.79034 -5.79598 35229 ft 486 kts 164°
2026-04-25 20:56 51.72810 -5.75282 35222 ft 493 kts 151°
2026-04-25 20:56 51.70072 -5.71913 35223 ft 498 kts 140°
2026-04-25 20:56 51.67753 -5.67738 35221 ft 503 kts 128°
2026-04-25 20:57 51.65940 -5.62899 35200 ft 508 kts 117°
2026-04-25 20:57 51.64702 -5.57553 35204 ft 512 kts 106°
2026-04-25 20:57 51.64091 -5.51900 35215 ft 514 kts 95°
2026-04-25 20:57 51.63918 -5.46196 35223 ft 515 kts 92°
2026-04-25 20:58 51.63493 -5.34630 35224 ft 516 kts 96°
2026-04-25 20:58 51.62684 -5.23151 35233 ft 516 kts 98°
2026-04-25 20:59 51.61745 -5.11704 35234 ft 516 kts 98°
2026-04-25 20:59 51.60791 -5.00300 35236 ft 516 kts 98°
2026-04-25 21:00 51.60146 -4.92630 35234 ft 516 kts 98°
2026-04-25 21:01 51.58364 -4.71685 35248 ft 515 kts 98°
2026-04-25 21:01 51.57378 -4.60285 35238 ft 514 kts 98°
2026-04-25 21:02 51.56382 -4.48915 35230 ft 513 kts 99°
2026-04-25 21:02 51.55378 -4.37570 35226 ft 513 kts 99°
2026-04-25 21:03 51.54368 -4.26301 35231 ft 512 kts 99°
2026-04-25 21:03 51.53343 -4.14980 35229 ft 512 kts 99°
2026-04-25 21:04 51.52307 -4.03662 35228 ft 511 kts 99°
2026-04-25 21:04 51.51261 -3.92362 35223 ft 511 kts 99°
2026-04-25 21:05 51.50059 -3.81115 35212 ft 511 kts 101°
2026-04-25 21:05 51.48772 -3.69894 35212 ft 511 kts 101°
2026-04-25 21:06 51.47667 -3.58624 35211 ft 511 kts 95°
2026-04-25 21:06 51.47039 -3.47313 35208 ft 512 kts 95°
2026-04-25 21:07 51.46376 -3.35953 35159 ft 513 kts 95°
2026-04-25 21:07 51.46151 -3.32174 35005 ft 511 kts 95°
2026-04-25 21:07 51.45810 -3.26500 34757 ft 510 kts 95°
2026-04-25 21:07 51.45467 -3.20825 34510 ft 512 kts 95°
2026-04-25 21:08 51.45121 -3.15142 34142 ft 513 kts 95°
2026-04-25 21:08 51.44772 -3.09452 33482 ft 511 kts 95°
2026-04-25 21:08 51.44423 -3.03796 32597 ft 508 kts 96°
2026-04-25 21:08 51.44072 -2.98144 31396 ft 510 kts 96°
2026-04-25 21:09 51.43362 -2.86870 29479 ft 498 kts 96°
2026-04-25 21:09 51.43011 -2.81396 28927 ft 490 kts 96°
2026-04-25 21:09 51.42664 -2.76008 28265 ft 484 kts 96°
2026-04-25 21:10 51.42322 -2.70724 27591 ft 479 kts 96°
2026-04-25 21:10 51.41979 -2.65449 26905 ft 475 kts 96°
2026-04-25 21:10 51.41636 -2.60211 26225 ft 470 kts 96°
2026-04-25 21:10 51.41293 -2.55022 25555 ft 466 kts 96°
2026-04-25 21:11 51.40952 -2.49898 24945 ft 460 kts 96°
2026-04-25 21:11 51.40612 -2.44814 24309 ft 456 kts 96°
2026-04-25 21:11 51.40273 -2.39780 23696 ft 451 kts 97°
2026-04-25 21:11 51.39934 -2.34814 22956 ft 446 kts 96°
2026-04-25 21:12 51.39596 -2.29906 22276 ft 441 kts 96°
2026-04-25 21:12 51.39262 -2.25045 21651 ft 435 kts 96°
2026-04-25 21:12 51.38930 -2.20253 21038 ft 429 kts 96°
2026-04-25 21:12 51.38713 -2.17125 20650 ft 425 kts 96°
2026-04-25 21:13 51.38278 -2.10902 19850 ft 417 kts 96°
2026-04-25 21:13 51.37955 -2.06322 19272 ft 411 kts 96°
2026-04-25 21:13 51.37638 -2.01863 18729 ft 405 kts 96°
2026-04-25 21:13 51.37322 -1.97417 18143 ft 399 kts 96°
2026-04-25 21:14 51.37009 -1.93046 17561 ft 392 kts 96°
2026-04-25 21:14 51.36700 -1.88743 16985 ft 386 kts 96°
2026-04-25 21:14 51.36393 -1.84521 16455 ft 379 kts 96°
2026-04-25 21:14 51.36092 -1.80368 15926 ft 372 kts 96°
2026-04-25 21:15 51.35794 -1.76288 15413 ft 366 kts 96°
2026-04-25 21:15 51.35500 -1.72273 14900 ft 360 kts 96°
2026-04-25 21:15 51.35209 -1.68332 14495 ft 351 kts 96°
2026-04-25 21:15 51.34926 -1.64507 14410 ft 349 kts 97°
2026-04-25 21:16 51.34636 -1.60617 14318 ft 353 kts 97°
2026-04-25 21:16 51.34346 -1.56742 14235 ft 350 kts 97°
2026-04-25 21:16 51.34055 -1.52872 14225 ft 350 kts 97°
2026-04-25 21:16 51.33763 -1.49004 14222 ft 351 kts 97°
2026-04-25 21:17 51.33472 -1.45159 14183 ft 345 kts 97°
2026-04-25 21:17 51.33185 -1.41403 14099 ft 334 kts 96°
2026-04-25 21:17 51.32913 -1.37866 13928 ft 314 kts 96°
2026-04-25 21:17 51.32653 -1.34478 13738 ft 293 kts 96°
2026-04-25 21:18 51.32415 -1.31393 13502 ft 275 kts 96°
2026-04-25 21:18 51.32182 -1.28375 13061 ft 271 kts 96°
2026-04-25 21:18 51.31951 -1.25391 12585 ft 269 kts 96°
2026-04-25 21:18 51.31680 -1.22494 12433 ft 265 kts 105°
2026-04-25 21:19 51.30810 -1.19863 12355 ft 271 kts 130°
2026-04-25 21:19 51.29594 -1.17570 12262 ft 269 kts 130°
2026-04-25 21:19 51.28379 -1.15294 12242 ft 268 kts 130°
2026-04-25 21:19 51.27164 -1.13022 12238 ft 269 kts 130°
2026-04-25 21:20 51.25945 -1.10742 12247 ft 269 kts 130°
2026-04-25 21:20 51.25140 -1.09239 12234 ft 269 kts 130°
2026-04-25 21:20 51.23520 -1.06211 12080 ft 267 kts 130°
2026-04-25 21:20 51.22318 -1.03966 11736 ft 265 kts 130°
2026-04-25 21:21 51.21136 -1.01758 11300 ft 264 kts 130°
2026-04-25 21:21 51.19948 -0.99541 10825 ft 262 kts 130°
2026-04-25 21:21 51.18773 -0.97350 10530 ft 254 kts 130°
2026-04-25 21:21 51.17662 -0.95116 10401 ft 262 kts 120°
2026-04-25 21:22 51.17116 -0.92373 10323 ft 261 kts 92°
2026-04-25 21:22 51.17388 -0.89549 10247 ft 259 kts 68°
2026-04-25 21:22 51.18188 -0.86989 10237 ft 258 kts 59°
2026-04-25 21:22 51.19097 -0.84517 10236 ft 258 kts 59°
2026-04-25 21:23 51.19968 -0.82005 10237 ft 259 kts 61°
2026-04-25 21:23 51.20776 -0.79443 10238 ft 259 kts 63°
2026-04-25 21:23 51.21540 -0.76841 10239 ft 259 kts 64°
2026-04-25 21:23 51.22283 -0.74222 10240 ft 259 kts 64°
2026-04-25 21:24 51.23023 -0.71613 10238 ft 259 kts 64°
2026-04-25 21:24 51.23766 -0.68991 10239 ft 259 kts 64°
2026-04-25 21:24 51.24506 -0.66380 10194 ft 257 kts 65°
2026-04-25 21:24 51.25241 -0.63788 9900 ft 256 kts 65°
2026-04-25 21:25 51.25973 -0.61213 9496 ft 253 kts 65°
2026-04-25 21:25 51.26698 -0.58671 9408 ft 255 kts 65°
2026-04-25 21:25 51.27436 -0.56088 9301 ft 255 kts 65°
2026-04-25 21:25 51.28169 -0.53523 9241 ft 253 kts 65°
2026-04-25 21:26 51.28901 -0.50965 9238 ft 254 kts 65°
2026-04-25 21:26 51.29633 -0.48408 9143 ft 252 kts 65°
2026-04-25 21:26 51.30360 -0.45867 8835 ft 250 kts 65°
2026-04-25 21:26 51.31107 -0.43419 8476 ft 245 kts 56°
2026-04-25 21:27 51.32342 -0.41580 8431 ft 246 kts 27°
2026-04-25 21:27 51.33972 -0.40872 8279 ft 244 kts 360°
2026-04-25 21:27 51.35601 -0.41462 7932 ft 242 kts 332°
2026-04-25 21:27 51.36846 -0.43233 7517 ft 240 kts 301°
2026-04-25 21:28 51.37335 -0.45758 7447 ft 247 kts 272°
2026-04-25 21:28 51.37349 -0.48524 7355 ft 248 kts 270°
2026-04-25 21:28 51.37352 -0.51263 7256 ft 246 kts 270°
2026-04-25 21:28 51.37358 -0.54002 7223 ft 246 kts 270°
2026-04-25 21:29 51.37367 -0.56723 7087 ft 244 kts 270°
2026-04-25 21:29 51.37372 -0.59434 6729 ft 243 kts 270°
2026-04-25 21:29 51.37379 -0.62138 6316 ft 242 kts 270°
2026-04-25 21:29 51.37386 -0.64838 5933 ft 243 kts 270°
2026-04-25 21:30 51.37396 -0.67502 5556 ft 240 kts 270°
2026-04-25 21:30 51.37406 -0.70164 5184 ft 240 kts 270°
2026-04-25 21:30 51.37414 -0.72845 4800 ft 240 kts 270°
2026-04-25 21:30 51.37422 -0.74636 4537 ft 238 kts 270°
2026-04-25 21:31 51.37435 -0.78110 4172 ft 229 kts 270°
2026-04-25 21:31 51.37459 -0.80591 4049 ft 217 kts 275°
2026-04-25 21:31 51.37953 -0.82735 3991 ft 198 kts 309°
2026-04-25 21:31 51.39021 -0.83960 4012 ft 193 kts 344°
2026-04-25 21:32 51.40348 -0.84175 3997 ft 191 kts
2026-04-25 21:32 51.41670 -0.84185 3993 ft 190 kts
2026-04-25 21:32 51.42994 -0.84188 3948 ft 188 kts
2026-04-25 21:32 51.44218 -0.83547 3666 ft 187 kts 38°
2026-04-25 21:33 51.45015 -0.81946 3398 ft 185 kts 60°
2026-04-25 21:33 51.45656 -0.80153 3118 ft 185 kts 61°
2026-04-25 21:33 51.46284 -0.78384 3017 ft 185 kts 61°
2026-04-25 21:33 51.46925 -0.76577 3004 ft 185 kts 61°
2026-04-25 21:34 51.47429 -0.74693 3019 ft 185 kts 75°
2026-04-25 21:34 51.47622 -0.72651 2992 ft 185 kts 86°
2026-04-25 21:34 51.47661 -0.70568 2808 ft 187 kts 90°
2026-04-25 21:34 51.47670 -0.68491 2560 ft 185 kts 89°
2026-04-25 21:35 51.47681 -0.66447 2313 ft 182 kts 90°
2026-04-25 21:35 51.47687 -0.64462 2073 ft 179 kts 90°
2026-04-25 21:35 51.47696 -0.62515 1818 ft 169 kts 90°
2026-04-25 21:35 51.47703 -0.60684 1605 ft 160 kts 90°
2026-04-25 21:36 51.47710 -0.58875 1385 ft 162 kts 91°
2026-04-25 21:36 51.47717 -0.57148 1167 ft 148 kts 91°
2026-04-25 21:36 51.47722 -0.55488 973 ft 151 kts 91°
2026-04-25 21:36 51.47729 -0.53855 780 ft 147 kts 91°
2026-04-25 21:37 51.47732 -0.52749 644 ft 148 kts 91°